GFSSW_250_rhum_003.txt.gz
RH
10 9 11 11 8 6 8 10 10 11 12 13 12 14 16 17 20 24 28 40 34 30 31 24 20 20 26 20 21 24 24 25 28 37 35 54 41 42 42 32 25 20 14 10 15
12 8 6 7 8 7 6 6 9 10 11 13 12 12 14 12 12 18 23 30 27 28 27 27 24 22 18 21 21 22 24 25 24 26 35 46 41 44 35 35 22 18 11 13 17
8 7 9 6 6 6 6 6 7 8 10 11 13 12 13 11 9 16 24 27 24 21 24 30 33 20 16 19 21 19 20 21 21 27 32 40 44 41 32 32 22 14 11 14 19
7 4 3 5 9 6 5 6 7 7 8 9 10 12 14 12 12 18 18 24 20 20 19 24 32 20 16 20 18 23 17 18 21 23 35 37 48 31 42 31 19 13 13 23 14
4 4 2 2 2 7 7 5 6 6 7 8 9 9 8 8 16 17 21 20 18 19 19 21 26 25 18 19 22 23 16 20 23 23 32 50 39 33 44 28 15 14 14 27 9
4 3 3 2 2 2 6 7 6 6 7 8 9 7 8 10 16 19 20 16 18 20 22 23 24 25 19 21 24 18 16 17 23 25 30 42 48 48 34 26 14 16 27 25 11
4 2 1 1 2 2 2 6 7 6 7 7 8 7 8 12 14 18 16 13 18 18 21 22 23 21 24 21 36 26 16 17 21 24 43 60 77 58 47 20 15 22 36 22 15
8 4 2 2 2 2 2 3 8 7 7 8 7 8 10 10 10 14 14 12 14 18 19 19 20 19 22 21 28 27 21 19 19 25 41 80 73 65 47 18 16 28 37 23 21
46 14 4 3 2 2 3 3 6 10 7 8 8 8 10 10 9 12 12 12 14 18 19 16 15 16 21 24 28 30 20 18 19 31 59 80 60 72 39 18 16 34 40 32 32
93 75 25 5 4 3 2 4 4 10 8 8 9 10 10 11 10 12 11 11 13 14 14 14 14 14 21 26 26 27 22 19 21 33 58 78 59 80 38 18 20 53 53 47 60
100 100 100 45 12 4 3 3 4 8 10 8 12 16 14 12 11 12 12 11 11 10 11 12 13 15 24 28 22 29 23 19 22 35 69 91 86 88 28 21 32 59 62 72 88
100 100 100 100 56 15 5 5 5 6 11 8 11 16 16 14 11 11 11 10 10 9 11 12 12 18 23 24 28 29 21 18 24 40 64 99 83 71 34 23 28 52 70 74 88
100 100 100 100 100 90 34 6 6 6 10 12 11 15 17 17 13 15 10 10 13 11 10 11 16 20 22 26 29 26 20 21 29 42 94 84 98 71 29 21 22 38 72 78 92
100 100 100 100 100 100 100 48 10 7 9 15 10 13 16 19 17 16 12 11 12 12 12 13 14 19 20 27 23 22 24 21 22 38 93 84 93 58 24 22 25 25 39 43 40
100 100 100 100 100 100 100 100 48 13 9 14 14 12 15 17 19 17 17 16 15 14 12 14 16 19 22 26 24 26 25 21 20 79 88 83 94 36 24 26 28 32 24 31 47
100 100 100 100 100 100 100 100 100 84 22 15 19 20 16 17 18 17 15 18 21 20 18 23 19 22 22 23 25 25 23 21 26 81 84 99 85 32 32 33 32 42 41 37 38
100 100 100 100 100 100 100 100 100 100 99 46 21 21 26 21 20 19 20 17 19 15 17 24 21 25 25 24 25 23 23 21 45 96 98 99 79 34 40 38 36 38 46 48 50
100 100 100 100 100 100 100 100 100 100 100 99 74 38 23 24 26 25 24 31 39 24 32 26 27 25 24 26 26 22 22 33 60 100 100 99 74 39 44 52 52 49 52 48 45
99 100 100 100 100 100 100 100 100 100 100 100 93 89 89 80 49 27 27 29 35 41 39 34 33 35 48 41 38 23 46 72 66 100 100 100 69 47 46 54 56 58 69 69 57
78 100 83 100 100 100 100 100 100 100 100 100 100 100 97 90 77 84 65 55 40 36 31 32 34 40 40 36 33 67 93 93 100 100 100 96 67 52 51 46 65 84 69 62 58
89 80 100 99 100 100 100 100 100 100 100 100 100 100 100 100 100 100 100 100 100 88 62 60 65 54 46 57 99 100 100 100 100 100 100 93 76 54 48 43 45 54 69 76 72
76 66 92 92 100 100 100 100 100 100 100 100 90 100 100 100 100 100 100 100 100 100 100 100 100 98 100 100 100 100 100 100 100 100 100 96 83 70 52 48 50 52 56 62 69
96 100 76 84 92 99 100 100 100 100 100 100 100 100 100 100 100 100 100 100 100 100 100 100 100 100 100 100 100 100 100 100 100 100 100 100 99 90 83 72 76 84 91 97 95
93 84 79 75 85 67 85 100 100 100 100 99 100 100 100 100 100 100 100 100 100 100 100 100 100 100 100 100 100 100 100 100 100 100 100 100 100 100 100 100 100 97 90 86 83
75 90 84 97 96 96 86 78 94 100 100 100 90 100 100 100 100 100 100 100 100 100 100 100 100 100 100 100 100 100 100 100 100 100 100 100 100 100 97 88 89 88 84 78 64
43 70 100 93 100 93 93 100 93 85 93 100 94 85 86 96 96 100 100 95 100 100 100 100 100 97 100 100 98 94 94 95 95 90 91 84 84 85 100 100 97 85 79 80 88
44 47 71 74 98 99 100 100 74 94 99 100 94 90 65 80 82 89 98 100 100 94 89 100 100 100 100 100 100 100 96 87 76 73 73 83 98 100 94 90 92 97 88 79 81

GFSSW_250_rhum_006.txt.gz
RH
25 18 11 8 7 7 8 7 11 12 13 16 15 18 18 20 25 25 26 26 37 33 34 29 22 20 18 17 14 24 23 24 25 26 30 33 41 37 42 52 47 33 26 28 27
31 16 11 9 8 6 6 8 6 10 11 13 16 17 19 20 21 22 28 28 32 38 43 39 30 22 23 21 17 19 20 23 25 25 26 30 32 29 40 55 41 31 33 28 25
45 21 8 5 5 7 6 5 7 6 10 11 13 14 18 20 18 25 27 29 26 34 40 44 30 34 32 24 18 19 18 19 23 24 26 28 24 30 43 45 42 35 42 36 19
56 24 6 5 4 3 6 6 5 6 6 10 11 12 12 16 19 19 23 24 25 28 35 40 38 44 29 22 18 18 17 16 18 23 22 22 24 29 29 40 42 35 51 35 14
64 22 5 4 3 2 3 7 7 6 5 7 9 10 11 13 18 19 21 23 25 28 28 33 35 37 30 24 22 18 17 16 18 19 20 21 22 26 30 38 38 49 50 25 12
71 30 6 3 3 3 2 4 7 6 6 5 7 7 10 12 14 20 22 19 24 29 31 28 40 36 25 28 25 18 18 16 18 17 16 22 24 31 30 40 61 56 38 17 13
82 52 11 3 2 1 2 2 4 7 6 6 5 7 9 22 10 18 20 19 19 24 30 38 32 26 22 27 27 22 19 17 16 17 17 22 24 30 42 62 70 51 34 16 32
100 73 19 4 3 2 1 2 3 6 6 6 6 6 10 14 10 15 16 16 18 23 28 34 26 20 20 23 28 26 21 18 18 20 21 21 23 38 54 64 56 58 31 18 37
100 96 38 8 3 2 2 2 3 5 8 7 7 7 10 8 11 17 17 15 17 24 27 26 21 18 22 24 25 26 21 20 24 25 21 20 27 81 77 72 64 60 31 19 33
100 100 91 28 5 3 2 2 2 3 8 8 7 10 7 9 11 16 19 16 17 23 24 23 19 19 22 23 27 26 20 22 24 29 21 20 26 96 92 81 78 70 25 20 38
100 100 100 52 16 4 3 3 2 3 8 8 9 13 9 8 10 12 17 17 18 16 17 19 18 18 22 26 22 22 24 24 30 28 20 17 31 59 83 88 86 63 24 24 45
100 100 100 100 51 12 4 4 3 3 7 7 9 13 10 9 11 11 13 16 14 16 14 16 16 21 23 19 21 21 22 25 29 27 18 20 37 80 82 82 78 54 26 22 52
100 100 100 100 98 23 6 6 4 4 9 8 10 12 12 10 12 12 12 15 19 16 15 18 19 22 22 19 21 21 23 25 29 26 18 24 36 78 83 71 69 51 27 20 36
100 100 100 100 100 98 11 8 6 7 12 10 12 14 12 11 12 12 12 14 14 15 14 16 20 14 17 18 21 20 23 26 30 26 19 41 61 76 81 72 76 45 27 21 22
99 100 100 100 100 100 83 20 9 10 14 12 15 18 15 13 14 12 11 12 15 14 13 13 12 12 14 18 20 20 23 26 27 26 19 34 62 81 88 66 68 36 24 24 27
69 100 100 100 100 100 100 92 11 11 17 12 15 18 15 13 14 12 12 13 14 14 14 13 14 14 18 18 20 21 22 27 27 24 20 23 68 88 85 69 58 32 31 32 34
93 100 100 100 100 100 100 100 35 12 17 13 14 18 16 16 13 12 12 11 11 11 11 12 12 13 16 17 19 25 23 24 27 26 21 26 93 100 91 68 62 37 34 35 38
98 100 100 100 100 100 100 100 97 13 19 18 15 18 19 18 15 13 12 13 14 16 14 12 11 13 15 16 20 25 24 21 26 25 22 28 97 100 94 68 67 41 37 35 38
74 100 100 100 100 100 100 100 100 100 26 27 22 18 19 21 20 13 15 15 16 15 13 12 14 18 18 17 23 27 26 24 27 25 22 43 100 100 99 69 72 48 38 42 47
79 100 100 98 100 100 100 100 100 100 100 48 32 37 24 20 22 21 22 25 21 18 16 14 15 15 17 21 25 26 25 26 24 23 31 53 100 100 100 95 76 57 44 48 54
70 73 100 100 81 100 100 94 100 100 100 100 75 58 40 44 37 25 23 26 26 27 24 23 25 24 23 26 29 26 27 27 24 23 42 68 100 100 100 100 90 64 54 49 49
86 77 100 100 100 100 100 100 100 100 100 89 100 100 66 38 40 40 42 42 38 32 26 25 26 24 24 23 24 27 29 29 29 37 59 84 100 100 100 100 100 82 64 62 60
88 86 100 94 100 100 60 100 100 100 100 63 71 81 87 66 45 38 35 39 41 55 55 38 35 31 28 30 35 34 37 33 29 60 93 100 100 100 100 100 100 100 92 81 79
95 71 77 99 97 100 100 77 99 100 98 100 87 100 88 85 86 76 72 63 57 50 40 38 37 42 46 42 36 32 30 41 99 100 99 100 100 100 100 100 100 100 100 100 100
97 100 62 60 95 95 100 97 92 100 88 100 100 100 100 100 96 100 100 100 98 96 97 90 83 78 66 43 43 49 92 100 100 100 100 100 100 100 100 100 100 100 100 100 91
78 100 95 61 81 95 100 100 100 87 76 99 100 100 100 94 100 100 100 97 100 100 100 100 100 100 100 97 100 100 100 100 100 100 100 100 100 100 100 100 93 83 72 61 60
69 70 92 72 88 70 76 100 100 100 100 59 74 75 100 100 99 84 100 99 100 100 100 100 99 100 100 100 100 100 100 100 100 100 100 100 99 92 83 73 63 59 57 56 50

GFSSW_250_rhum_009.txt.gz
RH
30 26 29 25 25 20 15 15 9 7 12 13 11 14 16 17 19 20 24 26 27 25 30 25 28 30 30 28 26 24 22 22 21 25 28 27 29 28 26 26 30 30 32 44 49
45 37 36 31 22 18 13 8 12 8 7 10 12 12 15 16 16 19 29 24 23 23 27 25 25 24 25 26 22 17 17 19 21 24 26 27 27 27 24 25 28 35 40 46 50
61 52 44 62 44 17 10 8 6 10 7 6 10 10 13 15 14 20 26 26 22 26 25 21 21 23 24 25 23 21 17 15 19 23 26 27 26 24 24 28 27 27 30 35 57
70 61 67 89 66 17 5 4 4 4 9 6 6 10 10 14 16 20 22 25 22 26 25 21 21 26 36 36 23 19 17 14 15 19 24 25 23 23 23 24 26 27 31 48 54
78 66 98 93 74 19 5 3 3 3 8 7 5 7 9 11 16 22 21 22 20 26 28 22 20 34 40 32 20 23 19 18 16 17 18 17 18 20 24 21 32 29 36 50 43
84 82 98 99 62 12 4 2 4 3 6 8 6 6 8 11 15 22 21 21 20 28 29 26 29 40 33 30 29 31 23 19 17 16 16 16 17 20 21 28 57 48 37 47 51
99 100 88 100 71 7 3 2 2 3 4 7 6 6 6 14 13 18 20 20 21 30 28 32 27 26 36 36 46 25 24 21 16 18 16 18 20 20 24 29 64 76 58 58 53
100 100 97 93 70 11 3 2 1 3 4 6 6 6 7 12 11 17 20 20 22 28 30 30 26 24 32 39 43 27 25 26 20 18 17 18 16 29 28 31 52 100 77 58 72
97 96 100 100 82 16 4 2 1 3 3 5 7 7 9 8 10 16 19 20 22 26 25 24 26 27 31 40 35 33 27 28 28 23 20 18 18 32 30 33 76 100 82 66 66
68 100 100 100 72 20 5 3 2 3 3 5 6 7 8 7 11 13 20 20 23 26 23 21 24 28 32 36 48 43 24 26 29 26 21 16 16 30 27 31 76 99 93 82 64
78 87 99 100 74 25 9 5 2 3 3 6 8 11 8 7 10 11 16 20 22 23 21 20 23 28 34 45 45 32 24 29 27 26 18 15 18 32 32 39 76 88 99 83 56
100 91 100 100 100 41 17 7 4 3 3 6 8 10 7 6 10 12 12 18 17 20 21 19 21 25 30 37 31 30 28 33 29 27 21 17 22 34 33 64 75 87 94 75 49
100 100 100 100 100 84 23 9 5 4 3 5 7 10 8 6 9 12 12 14 16 17 21 22 22 22 29 35 34 30 40 36 28 25 24 18 27 34 59 71 68 79 85 73 46
100 76 100 100 100 100 39 14 8 6 4 7 8 9 9 8 8 12 12 14 15 16 18 22 22 22 27 34 34 31 35 26 24 24 24 22 26 33 36 89 64 59 75 63 43
100 98 100 100 100 100 81 17 12 8 6 9 11 9 9 9 10 12 12 12 17 19 15 17 19 20 26 31 30 34 25 25 22 22 23 22 27 35 38 66 75 59 66 56 47
99 100 100 100 100 100 98 20 14 9 9 12 13 9 12 12 10 10 11 12 16 16 18 22 22 21 27 31 29 20 24 26 22 21 26 23 30 37 44 67 68 58 62 56 46
100 73 100 100 100 100 100 39 18 13 14 16 13 13 15 16 13 9 10 11 11 12 14 20 23 21 26 29 23 20 22 24 23 22 28 22 35 37 44 52 70 59 58 48 51
96 96 100 100 100 100 100 100 20 18 19 16 13 16 16 16 14 10 9 10 11 14 17 19 14 19 23 24 24 22 20 21 20 21 25 23 37 44 61 63 58 66 57 50 54
90 93 100 100 100 100 100 100 24 26 20 18 16 15 15 15 13 10 10 11 13 13 13 15 20 24 27 26 22 21 21 21 20 19 23 25 32 38 46 52 56 60 76 71 59
82 66 88 100 100 100 100 100 72 36 24 18 19 20 18 15 13 12 12 13 14 13 14 15 19 20 20 19 17 16 19 19 18 18 25 27 30 32 38 47 44 58 73 90 71
86 83 62 100 100 100 100 100 100 49 38 22 21 22 25 21 19 16 17 16 14 14 14 14 15 15 15 15 15 16 17 18 19 19 27 26 28 28 36 45 65 78 70 85 88
69 90 100 100 84 100 100 100 100 96 42 38 22 20 28 24 24 24 23 19 19 19 17 14 14 14 14 15 15 15 16 16 17 22 29 26 28 27 28 36 49 100 98 85 93
77 87 100 100 77 83 100 100 100 100 76 45 42 27 24 26 29 38 34 26 21 20 20 19 17 15 14 13 14 15 16 18 17 22 29 26 28 27 26 50 86 100 100 93 99
83 88 82 100 68 86 100 100 100 98 100 72 48 49 39 35 29 29 34 36 30 23 20 19 19 19 17 19 17 20 21 19 23 30 29 27 28 29 29 74 100 100 100 100 100
58 89 96 100 100 89 94 93 100 99 100 100 93 67 51 54 55 45 33 33 34 35 32 26 22 22 19 18 17 16 18 24 30 27 26 31 35 29 72 100 100 100 100 100 100
60 84 87 95 99 100 64 100 69 100 100 90 95 99 98 77 59 45 49 48 46 51 43 32 29 30 30 29 29 29 28 27 26 30 44 38 54 91 100 100 100 100 100 100 100
65 63 56 95 84 100 100 100 85 95 100 100 98 79 89 98 100 96 66 53 51 44 43 49 55 53 50 42 42 46 48 48 49 46 50 97 100 100 100 99 100 100 99 91 80

GFSSW_250_rhum_015.txt.gz
RH
51 51 37 32 44 41 36 30 31 33 33 33 28 21 23 19 15 15 19 19 22 27 23 30 32 37 44 73 82 100 94 99 99 89 77 87 85 89 78 86 81 85 81 69 50
59 56 38 44 46 33 31 36 40 44 43 35 32 28 22 21 17 14 18 16 18 22 28 28 37 38 38 45 82 96 100 100 92 86 100 100 87 92 84 76 73 66 40 31 26
65 57 50 46 34 34 46 66 70 71 84 86 74 42 26 19 19 18 12 16 16 19 27 25 34 33 36 51 61 76 95 90 97 88 96 92 87 78 66 58 42 32 27 23 22
71 63 51 40 39 58 78 74 96 93 91 100 99 60 31 17 14 20 16 18 15 18 23 26 28 31 35 49 56 56 62 68 63 58 59 57 58 54 50 37 27 25 26 24 23
72 72 60 46 61 78 63 68 93 100 100 94 78 50 27 18 26 13 17 13 15 15 22 24 26 30 36 52 52 57 48 46 47 37 36 34 33 30 30 24 26 28 25 23 22
75 90 66 52 66 61 56 65 93 99 100 90 67 38 23 9 9 6 13 11 14 13 22 20 26 29 41 52 52 62 44 42 38 34 28 23 24 28 22 27 31 27 21 20 21
79 94 64 59 86 63 64 91 99 93 100 78 48 14 4 3 3 4 11 10 12 13 20 19 30 28 36 48 56 56 38 38 38 34 22 23 20 20 23 23 24 22 19 19 19
79 85 72 65 91 56 77 99 100 100 92 44 14 6 3 2 3 4 10 10 11 13 19 19 27 27 34 40 48 52 33 38 38 32 24 28 16 20 19 19 17 17 18 19 23
84 87 70 61 68 65 96 98 100 95 51 22 7 3 2 2 3 4 9 8 11 12 17 19 21 26 29 38 41 36 35 34 30 29 37 26 17 25 19 17 16 17 18 24 24
88 93 72 64 70 69 90 90 100 66 43 13 5 3 2 2 3 5 8 8 10 13 16 16 18 23 26 34 26 39 40 37 27 43 31 25 17 26 21 18 20 18 17 22 26
89 99 74 77 66 79 77 100 100 60 35 10 4 3 2 2 3 7 8 7 11 12 14 16 16 21 26 31 32 49 39 32 20 45 46 32 20 25 25 22 19 17 16 22 26
90 98 76 73 64 74 94 100 100 56 33 10 4 2 2 3 4 8 8 7 11 12 14 15 17 24 25 30 27 36 41 32 23 55 49 41 23 23 27 21 20 18 17 21 25
94 96 92 74 68 68 100 100 100 54 27 10 5 2 2 3 4 8 9 8 12 12 14 16 19 25 22 27 24 34 44 31 25 58 43 42 30 27 25 20 21 18 18 20 24
100 98 99 82 74 62 89 100 100 54 26 11 5 4 4 4 6 8 8 9 13 12 15 15 24 24 22 28 28 38 45 28 25 46 39 46 38 31 25 24 22 21 20 18 20
100 100 100 87 98 87 88 100 100 60 16 10 6 5 6 5 8 9 8 11 14 14 14 15 26 24 23 30 33 43 40 30 27 38 33 50 52 39 28 30 31 25 21 21 19
100 100 94 79 100 81 96 100 100 70 25 12 9 7 7 8 9 9 8 13 15 14 15 18 24 24 25 28 30 32 30 36 34 36 42 43 52 34 35 39 34 26 24 21 17
100 100 84 81 100 99 88 100 100 61 23 17 10 8 8 9 10 9 9 14 14 12 14 21 32 24 26 27 29 29 33 35 38 40 50 44 53 31 38 33 29 29 25 23 22
100 100 76 76 100 89 86 99 100 47 25 18 10 13 10 10 9 9 10 14 15 13 15 20 26 27 23 23 30 31 34 39 42 46 47 41 53 40 34 30 29 26 24 23 23
98 100 67 68 100 85 98 94 90 38 24 18 15 15 11 9 8 8 13 13 15 16 16 24 33 28 24 22 27 28 28 38 39 39 46 41 45 48 36 31 27 26 25 25 24
99 100 71 73 100 89 90 86 64 31 21 19 16 15 12 10 10 9 11 16 16 16 17 23 31 32 24 20 18 27 29 28 34 34 35 43 39 41 36 30 25 24 26 25 25
100 100 73 77 96 69 99 68 64 35 23 19 16 13 13 13 15 12 11 14 18 18 19 22 28 30 24 21 21 25 28 28 33 33 33 36 38 33 34 30 28 26 26 25 23
98 100 76 74 88 70 78 84 59 38 29 24 19 18 17 22 20 16 14 15 18 20 21 22 28 32 27 24 23 23 26 27 27 27 26 28 32 31 32 33 30 28 27 25 22
100 100 76 62 100 66 95 100 56 41 32 24 21 19 17 20 19 13 12 12 16 18 20 20 23 30 28 25 22 21 23 25 27 29 29 29 37 33 27 27 32 30 27 24 22
100 100 79 66 98 70 95 99 59 56 36 29 25 27 32 29 24 19 15 13 14 18 17 18 20 23 29 34 35 33 30 28 24 24 28 29 30 27 24 29 34 29 24 22 20
100 100 84 66 82 69 79 100 88 59 58 38 38 28 28 29 26 24 21 18 14 13 16 16 17 18 23 28 28 29 30 29 26 26 23 27 27 28 31 32 32 26 21 20 21
100 100 87 64 85 95 100 82 99 66 68 50 40 34 32 26 21 18 19 19 17 15 15 17 18 17 18 20 23 24 24 24 25 26 27 29 29 28 27 28 25 22 20 21 23
100 100 95 66 97 81 100 96 100 94 78 70 56 44 31 31 29 28 23 19 17 16 15 14 17 20 20 18 18 19 20 20 20 22 25 28 29 26 26 24 21 22 24 24 26

GFSSW_250_rhum_018.txt.gz
RH
24 33 44 48 40 42 40 40 43 36 32 31 28 26 27 26 24 26 25 21 23 18 16 16 22 29 28 28 25 24 40 97 100 97 100 100 100 100 100 94 74 51 53 50 52
27 34 41 44 40 43 42 48 38 30 35 38 37 34 32 34 34 32 27 23 20 23 19 16 20 24 30 32 30 25 32 43 92 100 98 100 100 98 75 78 74 49 51 60 75
32 33 36 44 40 41 44 44 33 35 38 44 50 58 49 43 35 34 26 26 19 17 24 16 17 20 32 36 32 31 42 33 55 100 100 100 100 99 88 77 66 70 64 88 80
37 38 35 44 42 47 52 44 38 51 66 61 70 81 81 75 62 57 32 24 24 18 19 21 14 18 30 38 40 44 47 35 53 100 100 100 100 98 88 88 84 75 92 80 69
42 46 38 50 50 61 64 45 52 60 70 94 99 100 100 100 79 42 44 23 22 20 19 20 16 16 23 42 42 48 49 45 76 100 100 100 100 99 95 61 78 87 72 63 52
47 56 50 55 55 72 73 50 60 81 100 100 100 87 88 75 68 48 32 34 20 22 21 18 19 15 23 40 44 53 54 44 72 100 100 98 94 88 62 60 52 44 37 31 26
56 55 65 65 65 75 76 54 63 96 100 100 97 100 88 94 70 54 36 29 22 17 22 21 18 14 23 35 47 47 50 44 65 81 82 65 52 56 47 34 33 32 30 27 24
64 50 76 64 75 83 83 56 80 98 98 91 89 79 93 74 40 32 18 11 16 17 20 20 16 14 20 31 44 44 43 48 59 55 57 40 34 32 27 27 28 28 26 26 26
66 51 81 67 73 88 93 66 81 88 100 84 86 74 64 33 16 9 6 5 8 15 14 16 13 14 19 29 36 40 39 53 53 50 48 40 34 27 24 25 23 22 22 20 16
69 54 92 73 73 90 98 74 74 100 83 100 90 56 24 18 10 4 3 2 4 8 8 13 10 14 17 26 27 38 36 50 50 50 50 44 34 36 27 27 20 19 18 17 16
76 56 99 83 76 90 100 87 89 86 74 74 75 26 18 12 5 2 2 2 2 5 6 11 10 12 16 28 32 39 62 51 47 50 54 50 35 46 34 28 20 18 19 18 17
80 60 100 91 88 92 100 92 99 84 82 82 58 20 15 8 3 2 2 3 3 5 7 11 10 14 18 31 34 53 59 52 37 51 53 53 33 48 34 27 22 21 20 18 18
80 67 98 94 96 96 98 100 91 76 72 85 40 15 12 5 2 2 2 3 4 7 9 11 14 13 20 33 32 40 48 43 34 46 53 58 31 34 30 23 23 22 21 21 17
85 80 98 97 100 99 86 100 76 83 78 70 25 18 11 6 2 2 2 3 6 7 12 12 14 15 24 34 34 41 48 31 34 44 58 57 35 36 28 24 25 22 22 20 20
84 86 100 94 94 92 87 90 84 90 88 38 19 13 7 6 3 2 3 5 7 10 12 13 12 14 24 32 36 41 41 22 30 46 60 47 48 39 40 32 29 22 25 25 24
85 90 100 100 99 84 90 87 82 98 96 33 20 10 6 5 3 3 5 8 11 15 13 16 14 19 39 30 35 36 29 20 28 44 57 43 56 29 48 40 34 24 23 29 26
84 93 100 100 93 83 86 87 88 100 57 33 19 10 6 4 3 4 9 9 12 13 16 17 20 23 39 29 32 28 22 21 24 41 54 46 56 27 53 50 40 36 32 30 26
85 96 100 100 89 77 83 72 98 99 41 32 19 13 6 5 5 6 10 14 14 14 17 14 15 25 39 29 28 26 25 23 24 44 52 49 67 26 42 43 41 40 36 30 29
82 100 100 100 85 79 72 71 100 75 37 30 22 12 7 7 8 11 14 15 14 15 15 15 23 28 37 28 26 24 26 24 28 44 50 47 60 37 37 46 42 42 37 32 30
79 100 100 100 79 75 76 67 99 52 35 29 23 16 12 13 13 14 14 13 14 16 14 15 24 27 29 27 25 27 26 27 30 43 48 41 50 45 42 45 44 41 38 36 32
79 100 100 95 77 75 75 73 84 46 32 27 23 20 16 18 17 20 16 15 16 17 15 15 18 27 28 27 28 25 26 29 34 39 46 44 45 49 43 40 37 37 35 34 34
84 100 100 96 74 74 71 79 78 44 30 26 25 25 21 23 24 26 22 21 22 21 19 14 16 20 32 24 25 23 26 30 31 33 44 49 40 38 38 34 33 34 31 30 34
98 100 100 96 66 82 76 77 72 48 35 28 27 27 28 25 25 24 26 24 26 24 23 20 18 19 28 22 24 22 21 26 31 34 36 42 45 42 36 32 27 26 27 31 34
100 100 98 99 69 72 94 71 71 53 42 40 32 32 35 32 23 23 25 24 25 24 22 22 21 21 28 42 31 26 24 25 28 32 35 38 39 34 30 26 28 28 30 31 32
100 100 100 94 72 70 83 76 72 54 47 42 36 35 33 35 27 21 19 19 23 22 20 21 22 22 25 33 36 34 26 24 23 25 25 31 29 30 28 30 31 30 30 29 29
100 100 100 96 70 72 59 91 68 57 62 47 40 34 29 27 21 18 17 16 17 21 23 21 22 22 23 26 33 37 36 31 28 24 27 30 36 33 27 27 28 31 30 28 29
100 100 100 100 76 60 80 100 76 79 63 66 56 45 37 33 29 23 17 13 13 16 18 20 21 22 22 23 25 31 39 39 37 33 33 32 35 28 30 31 30 28 28 29 29

GFSSW_250_rhum_021.txt.gz
RH
38 45 44 43 42 25 26 36 35 35 35 36 37 34 31 32 35 35 34 30 26 23 21 20 15 13 15 21 25 22 17 27 60 100 100 96 93 100 95 77 63 52 34 36 36
40 41 49 51 42 37 23 32 37 38 39 38 37 27 28 30 32 31 32 30 27 28 25 23 21 16 13 18 24 24 21 22 23 58 100 100 100 100 100 84 74 70 64 59 45
44 46 45 48 52 40 24 36 38 39 40 42 39 31 31 35 36 39 36 31 27 28 28 26 22 20 15 16 23 30 26 35 24 24 86 100 100 100 73 100 75 93 90 94 89
53 49 51 51 75 47 36 43 43 42 45 51 44 37 35 39 41 53 55 39 34 32 29 26 24 21 18 15 20 29 34 43 29 22 28 82 100 100 94 93 75 100 100 100 96
61 55 61 55 81 61 46 52 56 54 57 62 54 44 60 73 92 89 94 84 52 41 35 33 24 25 22 20 18 23 43 40 37 23 28 33 64 98 100 88 86 100 100 96 84
75 64 75 78 69 76 49 57 60 64 66 74 60 52 74 84 91 73 94 95 91 83 71 40 34 24 25 21 18 23 42 41 37 26 28 32 54 89 99 100 100 100 100 86 90
75 72 66 75 65 74 54 60 67 69 66 79 74 61 86 100 96 76 83 72 81 68 67 38 34 26 26 23 22 22 28 42 27 30 35 49 42 100 79 100 100 100 99 95 82
80 100 85 81 54 75 58 63 74 82 77 95 86 71 80 100 100 97 70 77 72 75 66 41 40 27 22 23 22 22 24 38 30 31 42 63 82 100 93 100 100 98 92 77 58
94 100 80 88 56 77 59 72 79 84 95 100 93 80 97 96 73 70 83 86 88 83 65 34 27 28 24 27 23 22 21 38 32 32 48 67 84 87 85 94 85 66 54 39 36
83 98 73 83 73 78 69 84 83 96 99 98 100 96 89 92 72 78 83 72 68 48 23 12 13 20 20 22 16 24 23 34 37 34 53 68 76 84 77 50 50 38 33 31 29
73 97 80 80 89 78 74 93 82 98 95 88 100 93 82 81 95 78 58 43 28 11 10 10 5 11 17 21 24 27 25 35 46 37 54 76 76 75 46 36 32 30 27 24 22
83 98 92 84 98 78 85 94 86 96 86 95 100 83 79 92 77 50 34 23 9 6 4 3 3 12 16 21 21 26 26 41 49 37 56 69 65 50 48 39 34 30 26 22 19
99 90 100 85 99 73 93 89 96 87 71 100 85 80 92 64 39 29 19 10 6 3 3 2 5 10 12 19 19 24 29 48 49 37 56 65 56 46 52 45 35 31 25 21 21
81 100 100 79 83 73 100 95 91 81 58 78 89 99 84 47 28 14 8 5 3 2 2 3 3 7 11 20 19 26 31 46 49 36 61 61 54 49 48 48 37 29 25 23 22
96 90 98 79 68 79 99 98 78 72 64 75 97 89 60 34 20 9 6 3 3 3 3 3 5 9 13 20 20 28 41 49 46 34 58 64 56 55 50 50 34 30 24 23 21
88 100 93 83 65 99 100 90 75 65 67 90 98 62 35 23 13 7 4 3 3 3 3 3 7 12 20 19 25 29 44 45 34 35 58 66 60 52 47 48 34 33 26 25 22
99 100 86 72 74 100 100 76 80 65 81 100 86 44 29 15 8 6 3 3 3 4 4 8 11 19 23 28 28 30 40 39 24 42 64 61 57 45 41 54 47 42 37 31 26
100 100 93 60 89 100 92 77 67 61 99 99 54 40 18 8 6 4 3 4 5 6 10 17 19 22 22 20 20 31 36 26 25 52 58 65 55 40 44 58 58 48 42 37 32
87 100 85 61 100 100 81 75 54 82 98 72 45 33 20 6 5 5 5 8 12 12 18 25 26 20 28 27 28 36 34 22 38 60 55 61 52 41 42 57 59 51 44 39 37
98 100 76 68 100 96 80 54 60 98 83 51 41 27 16 8 9 17 12 16 18 28 29 36 34 26 21 20 34 37 30 33 52 53 48 49 44 32 37 52 54 51 40 39 38
100 98 76 89 100 88 71 45 86 85 60 42 38 25 18 16 20 25 18 25 36 36 38 50 52 30 21 24 35 28 26 37 49 48 40 41 41 43 34 48 51 47 44 42 40
100 91 82 100 99 91 63 53 95 82 52 39 34 31 26 19 19 22 27 24 37 38 38 41 51 31 32 32 36 33 34 37 47 43 38 38 40 45 35 38 45 44 43 40 37
100 85 86 100 94 90 57 61 86 76 47 38 38 32 28 29 23 24 28 24 23 30 32 24 17 29 30 35 32 30 31 38 41 41 40 34 33 34 38 38 41 40 39 37 35
100 91 100 100 92 98 57 69 83 76 48 40 41 37 35 36 33 32 35 35 25 28 23 23 20 21 27 40 37 34 37 38 40 38 38 33 28 31 34 34 32 34 37 41 41
99 98 100 100 97 98 65 71 93 70 53 54 51 43 39 37 42 35 37 42 46 42 30 22 21 22 22 32 28 30 31 25 26 30 30 31 29 29 28 32 38 41 42 43 42
97 100 100 100 100 97 70 61 93 81 49 47 50 42 37 34 26 32 31 31 41 52 38 32 27 23 24 33 33 29 27 26 27 31 33 34 37 37 36 35 34 35 37 38 36
98 100 100 100 100 96 68 58 91 86 58 45 51 52 47 42 33 32 22 20 22 27 28 27 26 23 26 29 34 34 31 31 32 35 35 36 35 28 31 31 33 33 32 28 26

GFSSW_250_rhum_024.txt.gz
RH
78 73 57 50 51 40 34 37 35 42 30 26 31 28 28 30 31 31 37 33 29 25 23 21 21 20 17 13 12 15 16 17 19 18 47 100 100 76 53 75 81 79 54 50 74
84 94 64 52 58 46 35 38 39 42 40 25 28 34 33 36 35 37 30 24 26 28 28 24 20 20 20 18 14 13 17 18 23 18 20 78 100 98 91 67 83 95 45 35 44
94 100 77 62 64 54 47 36 46 43 42 35 35 37 34 37 37 36 34 25 23 24 26 28 28 22 24 23 18 14 14 21 27 20 16 32 91 100 100 86 94 94 82 76 51
99 84 86 79 72 64 54 46 41 47 51 46 42 50 44 44 42 45 41 32 28 30 28 29 28 25 28 26 22 15 14 18 26 26 15 22 57 90 100 100 100 86 95 78 96
76 100 100 76 66 79 60 57 50 51 50 63 48 58 55 49 61 46 51 40 34 34 34 34 30 26 27 30 26 20 18 16 22 26 17 17 25 38 65 99 100 96 96 96 100
82 82 80 94 86 76 73 65 63 52 46 58 57 59 64 64 63 58 63 52 42 40 47 47 43 31 26 27 26 25 22 18 19 23 21 17 26 26 26 47 93 100 100 98 87
90 72 71 70 89 77 80 68 84 72 57 53 62 57 70 90 74 67 65 67 53 48 47 47 41 38 32 26 28 29 23 22 18 21 24 20 25 32 29 18 65 100 100 89 97
99 99 90 93 81 74 71 96 91 73 56 59 72 59 77 88 93 92 73 75 74 79 89 87 61 62 50 30 29 27 24 22 24 20 26 26 38 46 32 19 34 71 100 100 100
98 100 98 95 85 83 91 100 99 77 57 58 78 66 82 100 88 93 91 82 76 73 71 68 68 77 70 53 32 24 22 23 28 20 26 26 50 43 33 21 41 74 92 93 100
100 100 100 100 94 83 85 96 99 65 60 62 79 74 86 95 88 91 90 92 90 91 96 98 99 93 87 68 36 31 27 28 28 21 25 28 49 37 31 29 61 85 98 100 100
100 100 100 100 98 82 81 98 96 76 76 66 85 89 87 88 77 86 90 86 90 97 100 100 89 79 85 70 51 23 22 24 26 26 25 28 51 40 32 34 96 100 100 100 98
38 64 100 100 100 100 81 100 94 76 58 66 88 94 96 79 86 88 80 93 97 99 95 70 55 78 53 27 17 17 19 25 25 27 25 30 51 39 34 57 100 100 92 86 64
83 48 46 89 100 90 96 92 99 85 50 63 88 96 90 86 81 79 83 90 87 63 54 31 24 13 12 12 11 17 16 24 23 34 28 30 49 51 35 85 98 84 72 52 34
90 76 41 96 100 88 100 100 99 83 51 67 95 100 99 86 67 83 77 58 48 41 27 8 12 8 8 7 8 14 17 25 27 28 27 34 54 59 28 79 70 65 41 33 30
77 79 49 84 86 98 100 78 100 81 57 70 88 88 69 61 67 63 50 39 25 13 7 8 5 3 3 6 7 23 19 24 25 26 37 33 49 54 36 84 74 50 39 34 29
75 71 51 63 87 100 100 86 89 69 74 78 87 66 61 57 45 41 35 18 10 7 5 3 2 3 4 4 13 25 25 26 30 27 31 35 52 50 42 75 63 54 47 36 32
63 65 50 43 94 100 100 98 91 77 84 86 70 66 73 46 36 33 16 7 6 4 2 3 3 3 3 7 13 26 42 44 60 28 26 44 55 41 59 62 54 52 50 42 32
46 54 42 56 100 100 100 100 97 79 90 80 64 86 57 41 27 15 7 7 4 3 4 4 3 4 6 11 19 17 30 35 22 26 31 38 48 38 63 56 51 50 49 45 34
33 49 38 74 100 99 100 100 80 86 88 58 82 55 49 28 18 6 5 5 4 4 5 5 9 15 22 34 43 39 41 25 29 46 42 48 62 55 65 57 54 53 48 45 39
34 48 52 84 90 100 100 93 85 96 59 71 60 49 40 31 10 5 6 5 6 7 10 9 19 30 30 51 88 61 32 24 33 41 40 49 53 62 65 62 55 53 53 46 47
39 41 89 74 100 100 100 82 99 69 73 61 51 47 36 34 20 13 9 9 12 18 26 30 39 63 85 99 91 45 42 35 53 42 48 48 49 60 72 65 55 51 49 48 51
41 66 77 81 96 100 90 100 91 64 62 55 53 41 36 41 26 19 18 29 30 51 47 38 70 83 83 87 72 34 32 39 44 44 46 45 60 65 63 61 53 51 45 48 49
39 81 67 92 100 100 100 100 68 81 65 58 52 39 36 37 26 31 55 58 60 65 84 97 100 91 75 62 31 27 31 46 36 53 44 50 60 65 63 60 49 45 44 48 44
46 70 85 90 100 98 100 99 62 82 74 62 54 42 36 38 23 31 44 57 66 74 100 100 94 80 53 55 26 29 38 34 44 46 42 58 62 61 58 46 43 41 42 45 42
60 88 93 100 94 100 100 90 76 91 84 64 59 56 41 48 27 22 29 57 77 72 77 99 84 56 39 32 29 31 34 40 59 59 54 55 63 54 47 37 36 37 39 41 41
75 89 100 97 100 100 100 68 77 94 81 64 64 64 67 42 49 30 20 44 52 55 53 55 57 47 31 28 29 34 34 45 53 47 50 52 54 50 39 42 41 32 33 38 41
94 95 96 94 100 100 100 61 75 99 80 60 64 63 72 79 52 51 54 32 30 31 30 24 16 24 23 25 30 35 35 44 46 46 54 54 47 35 33 32 35 35 37 38 36

GFSSW_250_rhum_027.txt.gz
RH
100 100 96 78 71 61 73 84 59 45 48 36 29 28 37 37 23 23 24 24 29 29 28 26 25 21 23 23 16 12 10 14 16 18 21 15 36 100 100 100 90 89 79 80 83
100 100 97 79 80 68 86 99 66 50 49 48 39 32 33 39 30 24 22 24 29 33 32 31 30 27 22 23 21 16 13 13 15 15 20 16 18 46 100 100 100 100 73 75 79
100 100 100 84 81 83 83 100 81 61 50 55 51 38 38 42 37 30 27 27 32 36 34 30 25 25 27 23 22 20 21 16 15 14 15 16 14 27 65 92 100 100 83 67 92
100 100 100 100 91 72 93 100 81 66 59 58 59 45 38 44 44 41 36 32 32 35 34 31 27 23 23 26 24 20 21 19 17 14 13 14 15 21 29 50 90 94 96 62 65
100 100 100 100 100 100 95 100 100 88 65 65 64 59 46 39 45 49 51 44 42 42 39 40 35 29 25 24 24 23 22 22 21 16 13 13 15 18 25 23 50 82 100 92 74
100 100 100 100 100 93 85 88 80 95 72 65 65 63 60 49 41 47 61 54 61 48 42 46 51 42 28 28 26 27 27 23 23 20 15 13 17 18 25 23 23 78 99 99 77
100 100 100 100 100 100 100 94 83 98 82 72 72 86 85 54 50 50 62 58 60 66 57 51 50 51 42 33 30 31 27 28 31 26 20 14 15 18 32 30 25 36 95 100 100
100 100 100 100 100 100 100 100 100 86 91 89 76 74 99 75 62 53 60 67 64 70 72 60 59 57 46 43 41 38 31 29 37 34 27 15 19 26 24 34 26 20 41 48 87
100 100 100 100 99 100 100 100 97 95 97 82 88 100 100 95 64 57 63 71 73 80 81 78 69 67 55 52 48 45 42 34 34 38 26 17 20 28 20 34 24 22 33 30 24
75 99 100 100 100 100 100 100 100 75 91 79 92 100 100 89 74 65 61 63 70 72 83 82 76 86 71 65 73 80 56 34 38 35 27 22 21 33 21 40 24 27 26 37 24
72 69 86 75 92 100 97 100 100 100 97 89 96 100 100 87 71 64 56 58 61 62 81 78 63 83 92 80 68 56 40 36 37 36 25 22 22 43 22 30 23 40 24 41 30
96 92 91 87 78 93 98 100 100 100 98 100 98 100 97 98 82 68 62 58 61 83 87 84 92 98 92 75 64 56 46 44 43 35 28 28 26 48 25 30 24 47 32 37 42
86 94 100 92 90 94 79 56 67 100 91 100 100 100 98 74 58 83 63 60 78 92 90 73 86 86 84 83 80 69 46 58 48 41 28 25 22 35 30 27 26 46 37 33 46
89 90 90 90 96 90 99 87 50 50 84 92 100 100 100 69 74 68 65 82 95 94 73 68 86 91 78 63 64 59 75 67 54 44 24 28 24 33 36 35 32 49 28 29 84
88 87 89 84 94 98 91 92 63 42 64 91 94 100 90 96 79 82 91 91 78 69 63 53 60 46 35 39 31 33 28 36 38 37 28 24 22 32 38 26 33 48 34 76 100
81 74 82 79 90 91 100 91 59 53 99 81 89 89 94 76 77 83 83 69 56 40 27 23 21 20 20 20 15 26 19 19 24 29 19 24 21 40 34 34 48 44 37 72 93
60 59 64 60 85 79 94 82 48 86 95 80 68 76 77 76 84 77 55 38 27 19 11 8 7 7 8 9 7 8 10 13 18 19 20 28 25 41 31 41 56 35 48 90 73
49 45 48 47 63 72 83 69 54 93 82 68 72 86 84 82 76 51 36 23 12 7 8 7 6 4 3 4 5 6 8 12 23 24 23 26 28 38 35 41 48 35 51 82 55
22 33 31 46 55 66 71 60 78 78 82 88 97 94 88 75 50 35 29 14 6 6 4 3 3 3 3 3 4 6 10 21 45 29 23 22 29 35 35 42 50 53 69 77 56
12 15 17 31 44 57 61 75 82 87 94 100 100 82 76 53 34 36 26 12 5 4 4 4 4 4 6 7 6 9 16 31 33 31 28 32 38 48 57 55 63 71 77 74 57
12 12 19 28 43 52 78 92 90 92 100 100 86 78 59 34 38 29 23 11 8 6 8 11 10 13 19 19 23 19 40 49 69 82 38 33 34 44 44 54 59 66 70 66 55
13 15 18 30 45 80 100 86 95 100 100 98 78 63 43 40 39 37 14 22 22 38 74 87 64 93 74 98 97 90 100 100 99 42 40 29 48 65 51 58 60 68 66 58 51
14 19 22 36 64 100 86 100 100 100 100 78 76 50 44 39 36 27 40 46 45 70 88 100 100 100 100 100 100 100 100 100 46 43 32 31 64 66 52 59 68 71 64 56 56
14 15 27 46 100 90 100 100 100 100 86 92 67 50 44 30 42 35 57 67 97 100 100 100 100 100 100 100 100 100 100 85 52 35 32 41 67 72 60 67 73 67 64 59 58
14 28 49 100 91 99 100 100 100 100 87 86 69 56 40 55 54 30 49 55 93 100 100 100 100 100 100 100 100 100 89 58 44 34 35 57 62 60 56 56 67 65 66 65 60
24 36 84 72 100 100 100 100 100 80 100 94 70 74 66 75 66 41 35 32 58 79 100 100 100 100 100 99 100 50 57 39 33 33 40 54 57 52 55 63 63 63 67 69 61
32 63 73 94 96 100 100 100 100 76 99 99 89 88 97 97 82 59 44 43 57 64 76 97 95 98 93 70 47 46 44 33 29 26 28 46 50 55 60 59 67 69 71 71 67

GFSSW_250_rhum_030.txt.gz
RH
13 30 74 100 100 100 100 88 80 54 59 72 73 61 53 41 40 33 27 28 32 29 22 18 19 20 25 26 21 20 19 19 15 14 16 12 15 16 16 29 91 100 93 91 98
15 25 66 99 100 100 100 98 89 58 70 84 84 90 62 50 48 43 36 31 33 35 25 18 18 23 23 27 22 21 23 24 21 14 13 10 12 15 18 15 29 86 100 100 89
19 61 83 100 100 100 100 100 100 64 63 78 99 100 76 56 51 43 42 38 36 38 32 22 18 22 28 26 27 24 27 25 25 21 16 12 12 14 20 18 16 34 89 100 100
27 72 100 100 100 100 100 100 100 77 68 71 90 100 80 61 56 56 45 43 40 37 39 33 26 26 32 33 28 26 24 27 28 24 21 16 12 14 18 28 16 17 25 83 100
50 81 100 100 100 100 100 100 100 95 83 79 99 100 99 91 59 71 62 46 44 41 38 42 34 27 28 33 31 28 24 24 30 24 24 21 15 15 18 24 18 18 20 44 94
50 78 100 100 100 100 100 100 100 100 100 100 100 100 100 99 93 70 74 72 55 48 44 39 39 36 34 39 38 34 30 25 26 30 25 23 21 14 17 21 18 17 19 24 61
62 69 91 100 100 100 100 100 100 100 100 100 100 100 100 89 95 91 88 82 71 56 50 46 44 43 47 47 44 45 36 29 24 28 29 23 20 17 20 18 19 18 17 22 32
48 78 89 99 100 100 100 100 100 100 100 100 100 100 100 100 92 85 81 85 73 73 71 54 48 51 51 56 54 50 45 36 32 28 30 24 27 25 27 15 18 19 17 18 22
36 57 80 100 100 100 100 100 100 100 100 100 100 100 100 100 94 74 77 99 76 66 68 64 54 52 51 52 54 57 65 50 45 39 32 26 40 33 32 18 17 21 16 19 23
76 39 72 99 100 100 100 100 100 100 100 100 100 100 100 100 100 70 89 96 92 76 66 67 51 50 52 62 72 75 62 47 43 43 32 27 35 42 33 22 18 19 19 22 26
68 72 48 61 100 100 100 100 100 100 100 100 100 100 100 100 90 72 74 96 94 88 89 62 57 69 72 57 58 62 63 54 46 50 38 38 32 39 36 27 23 22 20 18 30
85 79 63 64 56 79 89 100 100 100 100 100 100 100 100 100 100 96 69 84 91 77 69 64 50 64 62 52 54 63 69 64 55 60 52 41 40 33 44 33 27 25 23 19 28
88 93 90 79 68 74 74 74 79 85 92 100 99 99 92 100 100 100 89 83 83 72 65 51 56 72 67 66 70 84 84 76 63 60 46 47 37 31 42 38 26 30 26 24 32
72 93 86 86 89 88 80 76 92 100 95 100 100 98 76 86 100 95 86 80 72 64 66 57 85 75 64 64 72 91 98 86 75 73 60 47 41 32 40 40 27 33 24 36 46
69 76 76 84 78 83 80 84 87 90 79 100 100 99 85 58 85 100 76 63 65 60 53 60 71 60 54 75 83 85 80 82 81 73 62 47 34 36 44 40 34 34 27 39 55
57 78 77 72 86 87 84 84 79 86 90 98 100 98 84 61 84 91 93 75 57 51 49 48 48 50 53 61 57 58 71 72 79 80 47 59 30 42 35 43 36 32 29 46 59
71 72 82 88 87 80 80 78 88 93 100 98 89 88 70 76 92 96 83 70 56 53 49 42 33 29 27 25 22 22 31 33 37 33 18 51 21 40 46 41 34 30 33 53 51
54 77 93 90 87 89 81 77 73 100 100 88 87 79 66 78 90 67 57 48 50 51 36 32 23 12 6 7 6 6 8 10 12 14 23 42 17 50 52 32 30 30 38 48 44
23 28 76 78 82 68 86 76 91 100 100 81 88 59 80 72 68 65 52 61 51 46 29 22 8 6 5 5 6 6 5 11 8 11 27 38 31 95 56 27 29 29 48 53 51
10 11 37 44 43 56 61 71 97 100 77 86 60 81 78 65 62 57 66 59 48 29 16 12 8 6 6 5 4 4 4 4 6 12 21 34 33 76 26 28 30 34 65 50 49
9 14 17 14 20 32 47 90 98 97 75 72 78 81 65 80 70 69 59 44 36 21 28 16 16 13 10 6 5 4 6 8 9 17 35 26 39 37 30 33 36 44 69 48 39
8 9 10 10 16 36 66 96 89 70 83 72 95 64 92 89 70 54 44 58 45 46 61 53 97 98 67 34 18 13 7 19 23 28 50 62 50 28 34 32 33 49 52 42 40
9 10 10 13 20 33 52 64 65 85 69 100 76 94 88 66 56 41 69 64 63 70 71 100 100 100 100 100 100 64 80 30 29 48 72 84 46 38 34 37 40 56 48 45 48
9 9 11 15 19 25 32 52 74 71 96 96 97 90 70 51 55 51 77 59 90 97 100 100 100 100 100 100 100 100 100 99 74 75 81 51 52 42 39 42 55 59 54 60 57
9 14 18 26 26 34 48 59 69 92 99 100 86 87 58 36 43 83 65 75 89 100 100 100 100 100 100 100 100 100 100 100 100 100 65 44 45 42 43 54 49 56 62 73 83
14 16 25 23 28 48 66 70 99 100 100 100 82 68 43 37 58 84 75 85 88 100 100 100 100 100 100 100 100 100 100 100 97 85 51 59 44 43 45 56 50 62 66 73 85
15 29 30 36 53 65 77 100 100 98 100 96 84 55 39 83 90 79 68 62 91 100 100 100 100 100 100 100 100 100 93 100 100 71 63 47 44 40 52 55 61 67 73 80 90

GFSSW_250_rhum_033.txt.gz
RH
62 67 66 65 65 65 67 74 100 100 100 100 71 63 72 67 68 64 48 36 34 33 28 26 26 28 29 22 20 21 22 28 30 26 20 11 12 11 14 15 17 17 45 100 100
42 68 60 58 63 73 79 79 80 100 100 100 95 73 76 77 72 80 63 51 39 39 37 34 29 27 30 27 20 16 20 29 28 25 24 14 12 14 13 15 16 17 16 18 94
51 53 62 63 68 64 60 97 98 92 100 100 100 77 75 78 82 90 70 60 58 47 43 44 38 32 33 32 22 17 20 24 29 27 24 17 17 15 15 16 16 15 17 15 18
68 65 63 32 19 20 22 49 97 100 100 100 100 78 74 89 76 87 93 85 64 51 44 40 43 40 35 34 30 21 20 23 29 24 24 21 18 19 17 18 16 12 14 17 18
78 65 40 20 20 20 35 95 100 100 100 100 100 100 80 94 72 77 90 83 85 71 52 47 42 43 42 36 38 34 29 26 30 26 25 22 20 19 22 20 17 14 11 13 17
88 62 33 20 19 50 90 100 100 100 100 100 100 100 100 93 76 75 100 100 100 93 74 68 55 46 49 41 35 35 37 32 31 32 27 24 21 16 23 29 21 17 13 12 16
99 67 32 22 31 70 100 100 100 100 100 100 100 100 100 100 99 100 100 100 100 96 92 71 77 51 46 49 41 37 34 35 34 36 32 28 23 22 28 26 27 22 15 12 14
100 76 43 26 42 90 100 100 100 100 100 100 100 100 100 100 100 100 100 100 100 100 89 72 62 64 44 48 55 43 37 38 41 40 37 25 33 28 29 25 24 26 19 14 12
100 95 66 29 42 99 100 100 100 100 100 100 100 100 100 100 99 100 100 100 100 100 93 71 83 78 53 44 54 57 50 49 45 41 36 27 39 33 24 27 20 24 24 16 13
100 100 84 48 38 67 100 98 100 100 100 100 100 100 100 100 100 100 100 100 100 100 100 90 83 76 89 63 49 50 46 46 45 46 40 39 38 48 32 24 29 22 24 20 15
84 100 96 85 38 50 78 99 100 100 100 100 100 100 100 100 100 100 100 100 100 98 86 61 50 61 83 69 52 49 54 50 48 47 45 45 38 55 41 24 29 29 26 25 18
60 90 94 91 81 40 48 91 88 99 100 100 100 100 100 100 100 100 100 100 100 98 100 82 62 69 75 69 68 61 59 54 52 56 45 47 44 54 52 34 27 36 32 29 25
58 68 94 96 84 78 54 45 66 91 94 92 83 99 95 94 100 100 85 77 72 70 81 77 71 86 71 74 59 52 56 47 48 56 47 43 41 46 57 38 32 41 39 32 31
45 64 77 93 91 97 88 65 46 63 67 93 80 82 76 67 73 86 97 96 100 91 89 72 94 74 56 53 53 53 50 38 38 45 45 37 38 45 63 47 40 43 47 38 39
48 45 61 80 85 100 93 76 72 69 58 87 99 98 100 100 90 84 86 94 91 73 62 62 96 84 63 64 47 42 39 36 41 48 48 40 33 49 60 56 48 50 49 45 42
38 47 44 76 84 100 91 96 93 85 75 87 98 98 88 83 79 83 90 92 79 66 49 51 70 77 64 56 48 39 42 42 43 45 34 43 26 43 70 61 55 50 45 41 42
22 38 38 68 82 100 96 90 93 89 97 98 98 96 98 98 96 98 97 86 80 56 45 50 54 48 46 46 42 39 39 39 41 37 24 45 33 45 88 68 68 59 48 34 39
9 17 44 52 76 91 96 97 87 93 98 100 100 100 100 100 100 100 96 84 62 55 41 52 61 48 49 41 35 30 26 24 24 23 21 51 31 37 99 98 98 75 50 36 40
8 10 23 34 57 97 81 84 97 100 99 100 99 99 95 96 100 90 75 58 56 64 64 63 68 42 23 22 14 8 6 5 4 4 7 15 23 30 73 100 97 87 66 41 41
6 7 12 25 36 84 78 91 93 94 100 96 94 100 100 100 88 72 50 61 69 79 79 79 37 34 17 9 5 4 4 4 4 6 6 7 13 21 59 100 95 84 77 43 41
5 7 10 20 17 58 74 100 100 100 96 88 94 100 100 99 69 59 62 77 100 100 88 58 48 32 14 12 7 5 4 3 3 5 6 10 21 39 68 84 89 80 70 40 42
4 7 8 20 16 19 46 100 100 100 94 80 87 100 100 71 64 59 98 99 100 84 90 84 52 39 90 70 46 7 7 6 5 6 6 10 25 78 72 69 68 69 62 34 42
5 7 7 13 16 26 43 84 98 97 94 90 96 96 69 69 74 100 70 63 82 95 94 60 58 90 93 100 100 70 40 14 10 8 8 8 30 59 58 77 65 66 48 36 45
5 6 8 9 12 12 21 39 68 76 70 73 98 68 74 75 100 97 68 87 99 94 82 84 100 100 100 100 100 100 100 59 29 19 18 14 26 36 48 52 66 47 39 36 47
6 7 9 11 15 20 27 32 26 36 64 94 73 72 85 100 77 69 94 99 96 94 94 98 100 100 100 100 100 100 100 100 75 55 32 30 37 49 51 61 59 39 37 42 48
8 12 16 17 14 13 20 27 37 67 91 89 69 90 92 95 65 92 100 100 86 80 92 100 100 100 100 100 100 100 100 100 100 100 100 100 94 85 80 65 54 36 45 50 61
11 13 11 11 13 16 23 34 49 72 91 78 80 94 73 69 59 90 100 99 78 75 100 100 100 100 100 100 100 100 100 100 100 100 100 100 99 88 71 62 54 44 50 60 68

GFSSW_250_rhum_036.txt.gz
RH
29 37 47 41 62 70 67 64 70 88 100 100 100 100 100 100 86 60 74 61 54 37 34 36 29 24 24 26 21 19 22 25 24 23 21 11 10 10 10 11 11 14 16 16 43
21 23 27 31 36 64 78 68 64 69 79 97 100 100 100 100 100 65 62 79 61 46 44 40 35 30 32 29 24 22 23 27 25 24 22 14 14 12 11 12 12 13 14 16 16
18 20 23 29 29 41 84 82 71 64 66 69 82 99 100 100 100 99 56 73 74 66 48 44 48 42 34 35 35 27 26 30 29 23 19 16 16 15 18 14 14 12 11 13 15
16 19 22 24 29 47 71 96 87 72 60 69 73 82 84 100 100 100 69 62 91 79 66 63 62 49 46 40 38 34 29 30 34 27 20 17 17 22 25 25 18 13 12 12 14
15 20 23 31 49 60 77 94 98 82 75 76 78 84 91 90 100 100 100 57 75 92 79 76 89 65 46 48 42 38 38 33 34 34 25 18 17 18 23 27 24 20 16 13 13
17 23 33 54 74 72 77 88 95 88 82 87 92 96 100 100 100 100 100 75 68 80 99 90 90 81 65 52 47 49 46 42 35 37 37 29 25 18 28 28 26 20 17 14 13
20 33 53 80 90 87 87 79 74 66 66 71 69 78 100 100 100 100 100 90 66 78 90 86 100 100 100 87 72 46 38 46 45 40 34 31 31 31 25 22 24 23 18 16 12
27 38 70 87 98 95 86 66 32 23 23 28 47 80 100 100 100 94 100 94 77 74 76 78 95 100 92 90 88 63 47 46 48 43 38 29 36 31 27 22 24 22 20 17 18
34 38 63 91 100 91 84 55 26 22 31 52 91 100 100 100 100 98 90 100 97 90 75 89 87 100 100 95 89 67 56 43 46 46 43 33 32 36 28 26 29 26 22 21 20
56 46 52 80 100 92 88 56 28 30 47 90 100 100 100 100 100 100 100 100 100 100 99 97 95 89 100 100 100 76 66 49 40 47 42 40 31 42 37 25 27 27 27 22 23
56 65 59 60 95 99 95 64 33 35 76 100 100 100 100 100 100 100 100 100 100 100 100 100 96 100 100 100 100 90 63 45 48 51 52 42 36 42 44 29 27 31 32 26 24
55 58 72 70 68 99 95 97 40 54 84 99 100 100 100 100 100 100 100 100 100 100 100 100 100 100 100 98 84 79 78 64 48 52 44 45 33 35 45 40 34 38 38 34 26
39 51 66 73 74 77 100 89 66 48 76 100 100 100 100 100 100 94 86 88 100 100 100 100 100 100 92 96 92 81 63 59 48 52 45 42 36 33 44 41 38 36 48 42 38
32 34 56 76 68 78 96 100 86 54 45 80 100 100 96 100 100 100 100 100 100 90 84 81 99 87 77 63 57 51 50 54 56 46 52 50 32 37 37 46 55 53 49 56 46
11 28 39 51 58 80 100 100 100 80 42 66 78 97 100 100 100 95 82 75 76 72 70 74 64 56 57 66 53 57 63 48 42 43 44 50 24 45 42 45 64 70 63 68 61
7 13 32 39 49 87 100 92 100 86 67 54 60 88 93 88 89 94 94 83 75 64 54 54 53 64 70 73 60 52 48 41 30 27 20 39 24 30 52 45 59 75 71 71 70
4 7 19 30 38 81 99 94 84 74 96 87 74 72 75 79 82 86 92 92 76 75 82 84 96 85 75 63 46 30 26 24 25 25 16 22 24 26 42 62 61 75 81 91 79
4 6 9 19 37 58 90 91 72 90 100 100 100 91 86 84 87 91 98 100 100 97 100 94 78 62 54 54 62 39 36 33 25 21 16 19 17 25 41 45 70 72 99 96 91
3 5 7 11 32 50 63 90 89 99 100 100 100 100 98 100 100 99 100 96 94 99 78 65 62 72 75 61 40 31 20 19 16 15 12 15 14 22 39 33 50 68 63 93 96
3 4 7 9 26 43 44 81 95 100 100 100 100 100 100 100 100 100 100 100 98 69 73 71 69 58 54 87 80 38 26 12 5 4 4 4 4 11 26 32 60 77 48 82 90
3 4 7 9 13 24 43 76 97 100 100 100 100 100 100 100 100 100 100 96 82 66 85 70 73 82 99 78 55 29 26 11 5 4 3 3 3 5 13 29 62 90 76 70 93
3 4 7 8 13 18 39 86 97 100 100 100 96 100 100 100 100 100 97 75 66 81 78 81 99 100 98 86 66 76 53 12 7 4 3 3 4 4 6 20 60 80 83 81 85
3 5 7 8 9 14 26 77 98 92 98 97 99 100 100 100 100 91 71 66 82 77 92 100 100 90 78 98 83 68 60 17 8 4 4 3 3 5 5 15 48 70 68 79 86
4 4 6 7 8 10 20 47 96 96 87 89 100 98 97 100 100 72 67 97 75 82 100 100 99 100 91 82 95 94 67 64 16 9 8 7 4 6 6 17 46 53 59 73 69
4 5 8 8 10 11 16 26 57 93 89 81 91 90 100 100 79 73 95 93 83 100 100 98 82 76 100 90 99 100 98 81 68 27 26 13 8 7 8 24 52 50 59 70 75
4 6 8 10 11 11 12 20 47 83 95 86 85 100 100 84 69 96 100 82 100 100 100 83 100 100 100 100 100 100 100 93 78 90 63 67 59 21 29 46 47 60 81 91 87
4 6 10 12 12 12 16 20 28 51 84 86 91 98 91 65 92 98 100 90 100 95 87 90 100 100 100 100 100 100 100 100 100 100 98 72 52 49 45 43 48 67 75 78 69

GFSSW_250_rhum_039.txt.gz
RH
22 49 44 44 48 56 54 70 78 66 69 94 100 100 100 100 100 94 100 81 75 75 71 64 57 50 39 33 30 21 21 22 20 18 19 14 14 14 12 12 11 10 12 13 14
18 19 26 31 32 33 40 46 72 79 72 68 76 100 100 100 100 100 100 96 83 68 64 63 60 45 38 31 28 24 23 26 24 23 19 15 16 15 16 15 12 12 12 12 12
15 19 28 24 24 26 26 36 36 53 82 76 73 77 100 100 100 100 100 100 100 91 56 58 59 52 35 31 32 30 29 30 29 26 24 19 17 17 18 19 16 13 12 12 12
14 15 16 19 25 26 37 23 26 29 39 97 81 77 92 100 100 100 100 100 100 100 83 59 67 72 49 36 38 45 42 38 40 35 31 23 18 19 19 21 17 17 15 12 10
17 15 14 15 19 16 19 22 24 29 30 48 98 92 84 81 92 100 100 100 100 100 100 92 73 76 80 53 41 49 54 46 41 38 37 28 23 21 24 23 18 14 14 17 16
22 19 15 14 15 17 19 21 25 30 32 40 80 100 84 87 86 90 91 95 100 100 100 100 85 70 92 75 51 54 58 53 50 47 38 32 31 22 29 24 19 16 16 19 22
27 28 23 20 19 21 21 25 29 30 37 41 67 100 99 92 96 89 93 93 98 100 94 99 100 77 70 91 82 69 60 59 62 54 45 41 38 35 27 24 25 20 16 17 23
35 34 31 30 23 23 24 28 40 56 69 70 78 100 100 100 100 97 96 100 100 99 94 96 100 96 75 76 94 100 86 83 78 58 44 40 45 38 33 28 28 26 24 22 21
32 44 42 34 34 28 31 48 75 74 88 91 100 100 100 100 100 100 100 100 100 100 100 98 93 89 75 62 75 75 90 100 99 78 67 47 41 45 38 36 34 33 31 29 27
41 40 45 43 42 41 40 66 84 87 93 100 100 99 97 100 100 100 100 100 100 97 92 92 92 78 90 64 64 71 87 99 100 100 96 65 37 42 40 38 38 34 34 34 34
34 47 50 50 44 49 49 80 91 98 100 100 100 91 87 93 98 100 100 100 100 100 100 100 99 83 99 87 76 82 66 68 70 100 100 90 54 40 45 39 45 43 37 37 37
22 29 45 58 49 44 62 91 92 84 93 90 73 35 28 29 40 52 84 100 100 100 100 100 100 90 77 100 99 84 77 79 87 83 63 66 63 60 56 49 46 50 41 41 44
8 10 25 44 53 40 64 94 78 90 85 84 51 29 35 38 59 82 96 100 100 100 100 100 100 100 100 100 98 98 96 93 84 82 59 47 43 62 70 59 48 51 51 45 49
4 5 8 33 46 45 57 83 89 90 92 85 54 34 40 52 75 98 100 100 100 100 100 100 100 97 99 100 100 100 97 83 68 58 60 51 28 56 68 64 59 50 62 61 55
2 3 6 12 35 43 62 77 81 92 83 87 55 52 68 77 100 96 92 89 96 100 100 100 100 100 100 100 89 78 66 61 52 41 37 42 39 46 52 58 79 69 62 58 58
2 3 4 7 29 39 67 71 51 59 88 96 68 54 69 90 100 97 99 99 100 99 97 100 100 100 89 75 63 54 50 50 56 49 33 43 38 34 63 76 84 87 74 68 61
2 2 4 6 16 31 58 62 41 49 93 100 96 66 70 81 100 100 98 94 100 99 100 96 90 83 86 69 56 61 76 66 50 39 30 36 32 23 48 58 59 84 57 58 62
2 3 3 7 8 29 49 55 46 78 97 100 100 80 70 74 90 99 94 97 93 83 81 86 99 88 78 77 79 64 57 49 35 33 27 31 27 24 28 20 36 62 51 42 51
2 3 4 6 8 18 39 49 53 90 99 100 100 99 73 71 78 93 96 93 93 94 92 97 95 92 77 77 66 59 52 52 38 28 15 17 16 14 19 26 14 25 65 50 46
2 3 4 6 8 16 27 53 80 90 96 99 92 87 93 88 78 84 93 100 98 100 100 97 100 80 77 63 58 56 45 57 70 35 20 8 7 8 9 14 16 17 52 90 50
2 3 3 6 7 9 19 54 97 78 82 96 94 97 99 98 100 100 100 100 100 100 92 89 84 78 68 79 60 58 100 98 64 42 27 5 6 4 4 7 16 15 28 81 49
2 3 4 5 6 9 21 56 88 78 84 96 100 100 100 100 100 100 91 96 100 92 80 73 87 72 83 60 100 97 78 57 51 32 22 6 11 2 2 3 11 16 22 49 60
2 4 4 5 8 10 21 53 80 80 90 95 96 100 100 100 100 100 100 100 100 86 68 72 76 73 85 100 92 75 76 94 52 63 26 8 4 3 2 3 3 12 21 36 61
3 3 4 6 9 11 23 48 67 94 98 97 99 100 100 100 100 100 100 100 94 66 66 80 66 100 95 84 75 80 85 87 76 29 16 10 6 4 3 3 3 5 17 35 61
3 4 5 6 9 10 14 39 57 91 100 100 100 100 100 100 100 100 100 98 71 62 73 70 100 97 70 75 100 90 99 100 95 50 21 9 6 6 8 6 5 5 18 36 59
3 4 6 8 9 10 13 26 51 90 97 100 96 100 100 100 100 100 100 85 59 69 77 85 100 97 59 84 100 93 100 100 91 91 76 36 16 9 13 14 9 8 19 40 58
4 5 6 8 10 11 14 20 43 80 95 98 100 100 100 100 100 100 88 74 68 93 64 100 88 76 69 94 100 93 90 100 88 95 99 88 66 40 32 28 18 17 36 60 64

GFSSW_250_rhum_042.txt.gz
RH
10 12 14 14 18 38 41 45 52 50 82 72 58 90 100 100 100 100 100 100 100 100 100 100 99 86 95 96 91 76 69 77 67 57 50 41 29 18 16 16 16 15 18 16 15
12 13 14 16 21 22 37 56 47 54 75 86 84 64 86 100 100 100 100 100 100 100 100 98 88 90 93 84 93 80 70 64 56 48 41 34 30 17 17 17 17 15 15 14 13
11 15 15 17 18 22 23 41 45 72 71 72 90 77 68 83 100 100 100 100 100 100 100 96 89 83 91 86 78 69 60 51 44 40 35 30 22 18 18 21 19 18 18 16 14
11 14 17 18 19 25 32 42 51 55 61 61 78 93 80 82 96 100 100 100 100 100 100 100 90 81 79 77 75 64 58 52 39 34 30 24 21 20 21 23 22 18 17 17 16
14 15 17 21 20 21 30 45 52 51 52 49 51 68 91 84 90 100 100 100 100 100 100 100 100 100 84 73 72 65 54 46 42 41 36 29 27 24 28 28 26 21 18 19 19
12 17 19 21 22 20 22 32 48 56 52 43 45 52 67 98 86 95 100 100 100 100 100 100 100 100 97 83 67 75 68 52 54 45 51 39 33 29 31 23 27 27 24 22 22
12 13 19 22 25 24 19 19 20 28 46 41 46 49 51 68 99 94 94 93 100 100 100 100 100 100 100 100 84 72 94 70 70 56 58 53 53 45 41 31 30 30 31 29 27
16 15 17 22 24 27 23 19 19 24 24 26 32 36 33 49 70 100 100 100 93 100 100 100 100 100 100 100 100 83 87 87 77 73 60 59 72 58 50 47 39 31 30 29 32
18 23 22 22 25 28 26 23 20 22 24 26 29 28 29 38 54 91 100 100 100 100 100 100 100 100 100 100 100 76 76 88 86 80 88 66 59 76 61 56 46 40 36 34 35
21 24 26 26 27 30 36 26 22 24 26 33 36 34 34 40 45 86 100 100 100 100 100 100 98 95 92 87 86 77 82 90 84 74 78 89 89 100 89 72 65 58 46 36 35
23 21 23 30 29 30 35 28 26 30 50 65 47 42 51 48 45 56 92 100 100 100 100 100 100 100 88 86 83 83 78 74 100 78 68 69 75 94 100 100 100 84 68 52 47
8 7 9 11 25 30 27 43 42 40 45 52 72 86 85 93 91 91 95 100 100 100 100 100 100 98 98 95 87 85 87 78 78 78 62 69 61 63 73 86 100 100 94 81 61
4 3 4 6 9 28 27 60 55 44 56 83 99 88 92 90 98 100 100 100 100 100 100 100 100 100 100 100 98 92 91 100 96 80 69 85 56 64 67 79 99 99 91 72 60
2 2 2 4 5 14 37 62 65 41 51 84 97 97 99 100 99 99 100 100 100 100 100 100 100 100 100 100 100 100 100 92 80 83 72 67 45 67 83 100 100 91 83 68 54
2 2 2 2 4 8 39 56 64 40 49 73 94 96 100 99 92 93 94 99 100 100 100 100 100 100 100 100 100 100 87 80 81 78 74 70 50 60 94 98 86 74 55 51 57
2 2 2 2 4 7 25 60 58 42 42 62 89 91 100 93 74 53 46 42 56 71 90 99 100 100 94 96 92 76 70 88 89 90 69 80 56 50 72 58 55 52 48 38 39
2 2 2 2 4 6 16 50 52 36 57 70 98 100 100 91 60 50 54 73 72 73 80 73 76 83 83 76 79 80 88 86 77 59 49 52 55 57 56 41 37 39 40 40 35
2 2 2 2 3 5 11 34 29 46 54 75 97 96 98 90 54 62 72 94 97 89 93 89 89 97 100 89 82 88 80 68 57 71 79 73 66 60 48 38 39 36 38 44 45
2 2 2 2 3 5 9 18 28 63 69 88 94 100 96 84 62 64 91 91 88 88 88 100 100 98 87 78 70 67 72 90 88 69 50 50 48 44 42 33 17 14 18 22 29
2 2 2 2 3 5 9 24 43 73 68 75 87 82 88 74 59 55 74 79 77 82 93 100 100 88 77 75 83 100 89 70 60 54 54 46 42 59 32 23 8 8 12 14 20
2 2 2 2 3 6 9 24 80 75 71 77 82 82 88 84 68 60 63 74 87 94 98 95 95 100 82 89 91 83 80 77 71 56 47 46 58 31 18 10 4 6 8 9 14
2 2 2 3 4 7 14 37 68 80 70 78 83 79 84 94 94 76 70 83 86 99 97 100 100 90 88 90 83 72 80 65 66 60 47 38 66 10 6 6 7 4 5 6 13
3 2 3 3 5 8 14 31 69 56 70 80 92 95 100 97 98 92 87 97 99 92 95 96 96 86 91 74 75 67 59 62 60 54 81 59 26 9 5 5 4 4 3 4 10
3 2 3 4 7 10 20 43 64 64 73 83 96 99 100 99 91 78 95 100 90 92 95 86 89 97 73 72 67 64 82 56 84 85 74 33 15 8 4 5 3 3 2 3 9
3 3 3 5 8 11 15 45 68 76 75 87 99 100 100 100 92 84 100 99 94 95 93 91 96 73 68 80 69 61 60 98 98 85 63 31 13 10 8 6 3 3 3 4 12
3 3 4 6 8 12 18 45 73 81 87 94 96 98 100 100 100 100 100 100 100 100 91 98 72 68 80 85 71 56 100 90 100 93 76 56 25 11 9 6 5 4 4 8 28
3 4 5 7 9 12 19 37 54 76 90 100 100 100 100 100 100 100 100 100 100 96 99 68 74 62 85 64 59 82 99 100 100 96 91 59 49 25 13 10 9 8 12 36 53

GFSSW_250_rhum_045.txt.gz
RH
9 10 11 11 14 15 16 25 31 36 35 48 59 58 59 100 100 100 100 100 100 100 100 100 100 100 100 100 96 83 83 73 79 60 47 32 51 51 71 67 65 55 40 34 31
8 9 10 11 13 15 15 18 34 45 45 41 56 62 74 60 100 100 100 100 100 100 100 100 100 100 100 100 99 88 84 96 68 60 56 51 65 60 70 67 54 46 40 29 22
9 9 9 11 12 16 18 20 28 43 49 66 74 63 67 79 65 100 100 100 100 100 100 100 100 100 100 100 99 92 95 83 75 68 60 64 70 58 57 55 44 37 31 29 22
11 10 10 10 12 14 18 20 27 36 61 65 67 69 69 72 76 73 100 100 100 100 100 100 100 100 100 100 100 100 100 86 93 67 71 67 64 60 50 44 40 38 31 24 18
11 12 10 11 12 15 21 21 20 37 54 69 71 76 68 84 93 83 79 100 100 100 100 100 100 100 100 100 100 100 91 89 87 82 70 72 68 60 51 43 40 32 26 21 19
11 12 12 11 13 14 17 23 23 26 46 56 75 74 91 93 100 98 88 76 100 100 100 100 100 100 100 100 100 95 85 92 88 88 79 74 64 55 42 37 33 30 26 22 21
10 11 14 14 14 17 19 20 28 28 44 44 73 71 77 94 100 100 100 84 69 100 100 100 100 100 100 100 100 100 99 86 83 82 80 74 65 50 44 40 39 35 32 30 32
10 10 11 18 18 17 22 25 24 30 32 34 49 66 97 80 94 99 91 96 78 79 100 100 100 100 100 100 100 100 100 100 79 72 68 63 65 58 52 46 46 47 44 41 39
14 13 13 14 21 21 20 27 33 30 32 26 32 55 69 92 91 79 89 97 100 84 96 100 100 100 100 100 100 100 100 100 100 79 67 71 63 68 61 58 55 58 58 50 51
14 18 19 13 13 19 25 25 37 32 31 27 23 23 48 72 88 80 86 97 100 100 92 98 99 100 100 100 100 100 100 100 100 96 81 83 68 99 72 64 65 62 65 62 48
8 9 8 8 10 11 18 28 24 26 31 41 31 20 30 54 64 62 60 71 93 100 100 100 100 100 100 100 100 100 100 100 100 100 100 98 65 76 87 89 77 68 74 87 93
6 4 3 4 5 8 8 24 25 39 83 52 31 24 22 26 36 33 43 45 52 82 99 100 100 100 97 100 100 100 100 100 100 97 85 78 67 66 75 88 88 84 76 78 90
3 2 2 2 3 5 6 21 27 62 70 46 28 22 24 26 30 32 29 34 40 53 91 100 100 100 100 96 96 98 91 89 82 76 76 72 70 74 73 72 86 84 72 70 73
2 2 2 2 2 3 5 12 34 55 55 51 54 32 32 33 40 40 42 43 43 47 63 100 100 100 100 100 99 98 94 82 72 72 73 76 67 78 88 92 95 79 69 71 77
2 2 3 3 3 3 4 10 31 59 50 47 40 38 39 45 68 71 73 59 58 62 78 100 100 100 100 100 100 96 96 95 90 83 75 77 64 72 100 100 100 99 99 79 53
2 2 2 3 3 3 4 10 28 52 33 46 47 58 72 88 94 98 100 99 100 92 85 96 100 100 100 100 100 100 99 94 88 83 68 85 91 100 100 98 75 69 68 50 51
2 2 2 3 3 3 4 7 26 30 31 63 52 68 87 99 100 98 100 100 97 100 100 99 100 100 100 100 100 100 100 96 89 88 91 92 90 89 79 69 58 59 55 59 62
2 2 2 2 2 3 4 7 19 19 51 70 65 70 89 98 98 97 100 100 100 99 98 100 100 100 100 100 100 100 100 100 84 92 92 68 68 88 69 90 50 44 42 42 43
2 2 2 2 2 3 4 6 12 31 61 76 67 76 95 96 100 100 100 98 85 78 83 84 91 98 100 100 99 98 90 75 67 60 52 62 71 66 67 66 55 48 38 33 32
2 2 2 2 2 4 5 7 17 42 63 75 80 87 100 100 99 100 96 79 58 50 50 60 60 66 71 71 61 58 83 76 66 63 73 76 72 66 59 54 50 50 34 18 10
2 2 2 2 3 4 6 9 28 57 56 74 79 82 90 90 89 87 78 55 55 68 80 91 98 95 79 62 64 66 78 81 74 78 71 62 69 54 46 43 42 31 16 10 9
2 2 2 3 4 5 8 15 36 49 60 82 72 74 83 88 90 88 66 52 62 74 86 88 88 72 58 74 91 99 74 91 77 72 70 65 56 37 44 38 31 9 12 8 8
2 2 3 3 4 6 10 20 45 46 69 86 70 78 84 91 100 75 54 50 61 76 90 89 81 76 85 99 95 94 90 76 72 73 56 66 68 56 41 30 14 8 7 5 3
2 3 3 4 5 7 11 17 41 55 89 82 76 84 87 98 96 71 54 53 57 74 80 87 93 100 88 93 94 87 78 63 58 69 70 82 75 62 27 14 10 8 7 4 3
3 3 3 4 7 8 12 20 37 42 80 85 86 86 87 100 96 82 72 74 82 88 99 100 100 97 98 100 86 77 58 68 85 91 91 100 81 37 17 13 10 6 3 3 3
3 3 4 5 8 10 12 23 38 55 80 83 96 97 90 98 97 92 90 87 90 91 100 97 95 100 98 73 59 54 76 79 84 100 100 100 63 52 24 10 7 5 4 4 4
4 4 5 6 8 10 18 43 51 82 91 97 100 100 99 100 100 99 95 94 90 90 87 94 100 93 76 54 60 69 70 74 81 100 100 98 72 63 35 35 14 8 7 7 10

GFSSW_250_rhum_048.txt.gz
RH
6 7 8 9 10 10 10 12 15 20 22 26 23 30 36 40 99 100 100 100 95 100 100 100 100 100 100 95 97 86 80 82 99 60 52 32 24 24 32 26 30 44 36 25 24
7 7 8 9 10 11 11 12 15 23 24 42 32 28 38 43 46 100 100 100 100 100 95 100 100 100 92 100 90 83 86 100 95 70 57 46 35 32 33 34 29 32 31 31 31
7 8 8 9 10 11 12 12 12 16 30 35 55 41 38 49 52 55 100 100 100 100 100 90 100 100 100 99 94 96 100 100 92 95 77 62 47 48 43 43 47 36 39 43 60
7 8 9 9 10 10 11 13 14 14 17 27 53 60 48 47 50 81 56 100 100 100 100 100 95 100 100 100 100 90 99 100 96 90 81 83 66 55 48 53 53 61 58 61 63
7 8 10 10 10 10 10 12 14 15 16 26 44 44 64 57 66 88 66 65 94 100 100 100 100 95 95 100 100 100 100 100 100 100 99 78 68 60 60 62 64 51 66 74 63
6 7 9 10 11 10 11 11 13 16 17 19 20 32 59 77 80 100 83 79 69 94 100 100 100 100 100 100 100 100 100 100 100 100 99 82 75 70 83 60 65 57 48 58 56
8 6 8 9 11 12 10 11 12 15 18 20 19 26 29 81 93 98 100 87 85 72 90 100 100 100 100 100 100 100 100 100 100 100 100 87 76 76 92 66 76 72 68 62 57
7 13 11 9 9 13 14 12 13 15 20 22 23 22 35 58 99 96 100 100 99 92 72 99 100 100 100 100 100 100 100 100 100 100 100 90 85 84 89 67 75 77 68 59 53
6 7 11 15 12 9 14 15 14 16 18 21 23 25 30 51 65 100 100 100 88 90 96 82 96 100 100 100 100 100 100 100 100 100 100 93 78 73 69 71 72 67 59 54 52
5 6 8 9 11 11 8 16 18 15 20 18 18 25 27 43 62 87 100 100 99 98 89 90 86 93 100 100 100 100 100 100 100 100 100 96 99 98 77 84 65 52 50 54 57
4 5 6 4 4 3 4 6 17 16 20 17 30 30 34 42 66 70 91 100 100 95 100 100 94 92 88 100 100 100 100 100 100 100 100 92 89 100 90 90 76 59 52 57 63
4 4 3 2 2 2 3 3 5 19 20 26 34 22 40 34 41 61 71 96 100 100 100 100 100 91 80 85 100 100 100 100 100 100 100 100 100 100 99 82 81 95 99 88 71
4 3 2 2 2 3 3 3 4 13 26 28 41 34 38 35 34 40 56 84 97 95 92 92 100 94 95 89 81 96 100 100 100 100 100 98 96 98 100 100 98 91 82 72 69
4 2 2 3 3 3 3 3 4 8 26 30 38 31 46 41 34 26 37 62 88 99 97 89 100 100 100 100 91 84 90 100 100 100 100 100 100 100 86 100 98 88 76 76 74
2 2 2 2 2 2 3 3 4 7 18 38 35 60 61 49 37 29 29 38 51 58 70 82 88 91 96 100 100 90 92 89 84 84 75 77 72 66 82 75 74 68 74 79 71
2 2 2 2 2 2 3 3 3 7 23 39 37 60 65 58 46 34 28 27 33 44 55 67 64 70 70 76 90 96 91 87 87 82 79 78 70 62 82 77 71 68 68 68 73
2 3 2 2 2 2 3 3 3 6 15 40 44 78 66 70 59 56 55 46 42 48 42 43 46 41 45 56 76 95 99 100 98 96 94 96 95 92 92 73 84 89 84 77 77
2 2 2 2 2 2 3 3 5 8 28 43 59 55 69 70 57 60 68 71 74 74 66 73 54 44 47 52 71 100 97 98 100 97 100 90 94 100 100 100 78 68 77 89 76
2 2 2 2 2 2 3 5 7 13 41 45 59 65 71 56 65 95 98 94 90 95 86 86 79 64 67 74 84 91 90 97 94 98 96 100 99 99 99 95 94 77 69 64 45
3 2 2 2 2 2 3 5 9 21 50 58 76 93 89 90 97 100 98 100 100 100 99 99 98 95 93 89 89 98 99 100 96 88 93 91 100 97 92 76 64 47 42 40 36
3 2 2 2 2 3 3 6 11 29 53 63 82 77 79 96 96 100 97 97 99 100 97 91 100 100 96 96 100 100 100 100 99 96 90 72 62 58 60 53 60 64 47 35 28
3 2 2 2 2 3 4 8 14 53 64 71 94 84 82 78 85 88 98 96 91 87 87 82 78 77 84 85 82 75 66 63 60 65 71 60 74 81 77 57 40 36 28 20 17
3 2 2 2 3 4 7 12 28 56 71 70 77 87 96 96 98 98 96 94 94 83 67 60 54 51 47 62 69 75 70 69 81 93 94 80 64 53 47 42 38 35 27 15 9
3 3 3 3 4 5 9 17 56 67 64 68 80 95 99 99 98 100 100 94 78 54 52 64 57 59 73 94 97 71 84 88 87 85 79 76 67 64 78 52 42 21 9 7 5
4 3 3 3 4 6 11 19 45 59 70 72 94 97 100 100 100 100 91 68 53 52 62 63 68 83 100 100 84 85 83 85 70 72 73 98 62 92 84 58 50 16 8 6 5
5 4 4 4 6 7 10 13 31 49 71 83 100 97 99 100 100 97 75 60 54 54 61 82 87 77 91 90 82 91 82 65 72 71 90 80 94 82 81 82 66 32 16 9 5
6 5 4 5 7 9 9 14 35 68 77 99 99 98 100 100 100 100 93 86 82 79 80 80 80 84 79 89 96 68 74 64 78 96 100 86 86 78 100 100 90 68 48 29 19

GFSSW_250_rhum_054.txt.gz
RH
7 6 7 6 7 7 7 7 7 7 7 8 9 10 10 14 20 22 100 100 100 100 100 100 100 92 85 74 69 75 67 60 90 65 68 44 37 35 36 38 39 40 37 30 31
7 6 6 7 7 7 6 7 7 7 8 8 9 10 11 12 17 31 39 100 100 100 100 100 100 100 87 87 75 64 70 94 100 91 78 49 41 32 29 37 40 38 34 32 29
7 7 6 7 6 7 6 6 6 7 8 8 10 10 11 12 13 34 38 65 100 100 100 100 100 100 100 94 92 78 77 99 89 93 84 72 60 46 35 31 45 43 32 28 28
7 6 7 6 6 6 6 5 6 7 8 8 9 10 11 13 18 27 44 40 67 100 100 100 100 100 100 100 100 97 94 93 92 88 85 86 69 58 39 45 41 37 25 26 29
7 6 7 6 6 6 6 6 6 8 8 10 9 11 12 14 25 34 38 49 47 64 100 100 100 100 100 100 100 100 94 92 99 80 78 82 84 79 78 81 62 44 30 28 36
6 6 6 6 7 6 5 6 6 7 9 10 10 10 13 17 17 42 49 45 56 53 67 100 100 100 100 100 100 100 100 100 100 100 100 100 100 99 97 87 67 54 47 28 72
6 6 6 6 5 6 6 5 7 8 9 10 10 10 13 16 19 52 59 62 70 67 66 84 100 100 100 100 100 100 100 100 100 100 100 100 100 100 97 62 72 80 90 73 69
6 5 5 5 4 5 6 7 5 6 9 10 9 10 15 13 19 34 59 64 79 82 84 74 61 100 100 100 100 100 100 100 100 100 100 100 100 100 100 98 98 92 89 91 99
5 5 4 4 4 3 3 3 3 3 7 10 10 11 16 12 23 20 31 50 74 86 83 81 85 77 100 100 100 100 100 100 100 100 100 100 100 100 100 100 100 100 93 91 95
4 4 4 3 3 2 2 3 2 2 3 8 11 11 16 17 17 23 30 52 73 98 99 89 69 70 76 100 100 100 100 100 100 100 100 100 100 100 100 100 100 100 100 99 92
4 4 3 3 2 2 2 3 3 3 3 4 11 17 18 15 16 18 30 35 69 77 100 92 83 91 97 94 100 100 100 100 100 100 100 100 100 100 100 100 100 100 100 100 100
4 3 3 2 2 2 2 2 3 3 3 4 7 18 21 15 19 19 25 40 54 79 92 100 94 99 90 87 87 100 100 100 100 100 100 100 100 100 100 100 100 100 100 100 100
4 3 3 2 2 2 2 2 2 3 4 4 6 20 28 18 19 22 23 64 76 86 100 100 90 92 92 85 90 88 100 100 100 100 100 100 100 100 100 100 100 100 100 100 100
3 3 2 2 2 2 1 2 2 3 4 4 5 17 31 20 21 23 26 27 53 80 87 98 90 84 84 97 93 95 96 100 100 100 100 100 100 100 100 100 100 100 100 100 100
3 2 2 2 2 1 1 2 2 3 4 4 7 18 39 24 27 27 30 31 36 68 84 100 100 100 100 90 85 100 96 92 98 100 100 100 100 100 100 100 100 100 100 100 100
3 2 2 2 2 1 1 2 2 3 4 4 7 21 36 27 32 38 56 49 47 48 72 87 82 90 94 100 100 97 87 81 79 84 99 100 100 100 100 100 100 100 100 100 98
3 2 2 2 1 1 2 2 3 3 4 4 10 25 31 35 46 60 85 72 55 54 56 86 98 99 94 90 100 100 95 85 86 92 91 88 98 100 100 100 100 100 94 92 86
3 2 2 2 1 1 2 2 3 3 4 6 18 28 39 50 59 83 87 84 75 77 57 55 71 90 98 99 100 100 100 83 83 80 87 92 91 84 96 100 100 100 100 100 99
3 2 2 2 2 2 2 3 3 4 5 12 19 38 47 55 67 76 85 91 87 59 53 44 59 88 88 96 100 100 97 99 94 89 87 97 100 90 80 78 92 99 100 97 95
4 2 2 2 2 2 2 2 3 4 7 13 32 47 69 63 68 80 91 93 69 54 52 54 69 60 80 99 100 100 100 98 86 88 87 88 100 92 85 63 62 68 71 74 74
4 2 2 2 2 2 3 3 4 7 15 31 51 68 61 63 70 79 80 58 58 57 54 60 63 78 88 100 99 100 100 92 82 82 78 77 73 67 62 60 53 54 57 61 64
4 3 3 3 3 3 3 4 7 15 33 42 48 48 72 82 79 81 62 65 65 57 49 52 66 88 95 96 93 97 88 72 71 84 78 77 82 66 50 51 54 66 71 62 54
5 3 3 4 4 4 4 6 12 23 38 52 65 84 85 77 77 62 75 71 72 61 54 59 64 76 74 81 78 77 77 72 73 70 60 87 74 76 78 80 82 85 69 61 74
6 4 4 5 6 5 5 7 20 37 64 82 90 90 92 97 90 94 98 96 95 93 94 95 100 100 100 90 82 80 85 95 97 80 92 91 100 81 93 95 81 60 67 68 55
6 5 5 7 8 8 10 11 29 48 66 88 96 90 85 90 100 100 100 93 95 100 98 92 100 96 92 95 95 100 100 91 86 100 86 81 95 89 80 71 68 57 52 54 59
8 6 6 7 11 11 21 29 47 68 78 83 74 80 89 93 99 96 100 98 95 94 95 95 95 98 100 100 99 99 89 78 83 99 88 82 86 74 63 52 54 61 82 89 79
8 8 7 9 12 24 39 36 59 78 89 85 89 94 96 99 100 97 97 100 100 98 98 98 92 91 85 74 70 83 92 98 95 96 83 74 61 56 50 60 71 73 85 99 79

GFSSW_250_rhum_057.txt.gz
RH
9 8 7 7 6 6 6 5 6 7 7 6 6 7 7 8 9 10 21 100 100 100 99 96 88 88 78 79 66 48 47 53 68 95 92 72 74 75 78 82 81 81 66 62 82
9 9 7 7 6 6 6 5 6 6 6 6 6 6 7 8 9 11 13 29 88 100 100 100 100 100 97 90 67 66 58 56 84 77 68 56 59 63 62 59 63 81 79 80 88
8 8 8 7 6 6 6 6 6 6 6 6 6 6 7 8 10 14 12 18 42 94 100 100 100 100 100 97 96 82 74 88 76 88 74 53 51 54 55 53 55 57 51 47 53
8 7 8 7 7 6 6 5 6 5 6 6 6 6 6 9 10 14 14 15 24 48 100 100 100 100 100 100 100 100 100 100 100 88 80 52 56 49 49 57 63 59 53 43 37
6 7 7 6 6 6 6 5 4 5 5 6 7 6 7 9 13 12 14 16 22 43 68 100 100 100 100 100 100 100 100 100 100 100 96 74 60 77 73 69 64 62 58 52 45
7 6 6 6 5 6 5 5 5 5 6 6 7 7 7 13 10 13 14 17 17 35 48 96 100 100 100 100 100 100 100 100 100 100 100 100 87 72 92 79 63 65 69 60 53
6 6 5 5 5 4 4 5 6 4 5 6 8 8 8 14 10 14 15 17 22 28 52 87 100 100 100 100 100 100 100 100 100 100 100 100 100 95 90 76 59 50 57 74 79
6 5 4 4 4 3 3 3 3 3 3 4 6 8 10 15 11 15 15 17 36 36 58 80 89 100 100 100 100 100 100 100 100 100 100 100 100 100 98 80 79 66 63 82 100
5 4 4 4 3 3 2 2 3 3 2 2 4 8 14 13 14 15 15 19 36 52 59 66 71 90 100 100 100 100 100 100 100 100 100 100 100 100 100 100 92 88 94 98 100
5 4 4 3 2 2 2 2 2 2 2 3 3 6 17 16 15 15 15 16 22 72 73 68 73 62 80 100 100 100 100 100 100 100 100 100 100 100 100 100 100 100 100 100 100
4 4 4 3 2 2 2 1 2 2 2 3 3 8 23 17 14 14 16 18 21 55 88 68 73 67 83 89 100 100 100 100 100 100 100 100 100 100 100 100 100 100 100 100 100
4 3 3 2 2 2 1 1 1 2 2 3 4 7 19 15 16 14 17 20 23 63 88 72 100 81 94 90 77 99 100 100 100 100 100 100 100 100 100 100 100 100 100 100 100
4 3 3 2 2 2 1 1 1 2 2 4 5 7 15 19 16 17 22 26 27 39 79 95 100 95 62 70 62 79 92 100 100 100 100 100 100 100 100 100 100 100 100 100 100
4 3 2 2 2 2 1 1 1 2 3 4 4 6 14 19 19 17 20 24 30 26 71 90 100 99 71 99 86 78 84 87 100 100 100 100 100 100 100 100 100 100 100 100 100
4 3 2 2 2 2 1 1 2 2 3 4 4 6 14 19 21 20 19 23 31 28 58 82 100 100 97 86 97 98 88 86 82 100 100 100 100 100 100 100 100 100 100 100 100
4 3 2 2 2 2 1 2 2 3 4 5 4 6 13 22 23 21 22 26 41 33 45 58 80 100 100 90 96 100 100 94 87 80 97 100 100 100 100 100 100 100 100 100 100
4 3 2 2 2 2 2 2 3 3 4 4 5 7 16 27 30 26 26 33 41 39 66 93 91 92 95 90 96 100 95 87 82 78 86 98 100 100 100 100 100 100 100 100 100
4 3 2 2 2 2 2 2 3 4 4 4 6 14 27 36 33 32 33 46 48 53 64 100 100 100 100 100 100 91 86 90 88 96 97 95 91 100 100 100 100 98 100 100 100
4 3 3 3 2 2 2 2 3 4 4 5 8 20 33 42 39 35 43 56 68 55 46 54 93 100 100 100 100 95 100 96 100 100 99 100 99 90 98 100 100 100 96 96 100
4 4 3 3 3 3 3 2 3 4 5 6 11 27 47 49 45 43 58 63 66 55 36 40 60 96 100 100 98 98 100 100 100 99 100 100 94 90 87 78 86 93 97 92 83
4 4 4 4 4 4 4 4 4 7 14 23 34 49 44 45 48 65 54 66 64 61 50 51 59 77 90 98 97 95 99 100 93 96 100 100 86 77 72 62 66 70 70 63 64
5 5 4 4 5 5 6 5 6 10 15 19 27 37 43 45 46 56 70 80 82 80 78 57 62 67 82 96 100 98 100 100 96 96 100 99 88 78 66 59 51 50 48 57 64
6 6 5 5 5 8 7 7 9 14 26 34 37 43 48 67 84 95 95 92 83 73 74 81 74 85 87 93 97 91 91 93 100 100 98 98 78 68 58 65 65 62 60 65 65
7 7 6 6 8 11 9 14 21 34 49 59 72 84 86 92 97 100 92 84 83 78 77 78 80 87 91 85 84 79 88 97 99 89 91 88 82 71 78 72 62 58 60 58 59
7 8 8 8 11 19 20 20 28 32 46 62 80 92 87 91 93 98 93 84 79 79 79 75 69 64 74 87 96 96 93 97 92 98 82 79 70 78 81 85 78 74 82 76 71
7 8 10 8 10 25 39 40 34 44 57 66 80 84 83 75 70 72 72 75 74 78 95 92 98 99 89 86 90 96 97 88 82 97 84 98 99 83 93 86 85 78 58 50 54
7 8 11 10 13 25 31 44 58 56 62 76 87 81 81 86 82 88 98 99 100 100 100 100 100 100 98 100 100 100 95 90 99 100 90 96 100 90 78 64 51 53 56 62 81

GFSSW_250_rhum_060.txt.gz
RH
8 6 7 6 7 6 6 5 5 6 6 7 7 7 6 6 6 6 8 10 14 60 90 100 100 100 100 98 65 65 48 56 99 100 100 100 94 69 73 98 94 93 93 94 76
8 7 7 7 6 6 6 5 5 5 6 6 7 6 6 6 6 6 9 9 11 28 84 100 100 100 100 100 90 64 69 79 91 100 100 92 89 83 82 100 100 85 100 94 87
7 7 6 7 6 6 6 5 5 5 6 6 6 6 6 6 6 9 6 8 10 13 43 100 100 100 100 100 100 99 83 98 90 92 90 81 82 81 88 100 100 98 100 96 88
6 6 6 6 6 6 6 6 6 5 4 5 5 6 6 6 7 7 8 8 9 13 14 96 100 100 95 99 100 100 100 100 100 98 93 76 70 67 70 87 98 98 100 94 92
6 6 6 6 6 6 5 5 5 5 5 4 4 5 5 6 8 7 7 9 8 12 14 69 100 100 100 100 100 100 100 100 100 100 95 86 74 69 65 65 66 77 83 88 79
6 6 5 5 5 5 5 4 4 4 4 4 4 5 5 7 8 7 7 9 9 11 14 20 100 100 100 100 100 100 100 100 100 100 100 91 71 65 98 83 68 68 69 69 72
6 5 4 4 4 4 4 4 3 3 2 2 2 3 6 11 8 7 8 8 10 11 14 19 64 100 100 100 100 100 100 100 100 100 100 100 98 88 84 74 75 72 75 72 62
6 4 4 4 3 3 3 2 2 2 2 2 2 2 7 11 8 8 8 9 12 13 14 17 22 95 100 100 100 100 100 100 100 100 100 100 100 100 100 87 80 72 70 88 95
5 4 4 3 3 3 2 2 2 2 2 2 2 3 6 11 11 8 8 10 13 15 16 18 25 34 98 100 100 100 100 100 100 100 100 100 100 100 100 100 100 95 94 99 100
4 4 3 3 3 3 2 2 2 1 1 1 2 4 6 10 13 11 9 10 14 16 18 21 32 36 40 96 100 100 100 100 100 100 93 90 100 100 100 100 100 100 100 100 100
4 4 3 2 2 2 2 2 1 1 1 2 2 4 5 7 10 11 11 12 16 18 20 32 56 33 78 89 99 100 100 100 100 100 100 100 100 100 100 100 100 100 100 100 100
4 4 2 2 2 2 2 2 1 1 1 2 2 4 4 5 9 12 12 14 18 24 21 24 56 59 63 78 89 97 100 100 100 100 100 100 100 100 100 100 100 100 98 99 100
4 4 2 3 2 2 2 1 1 1 1 2 2 4 4 5 9 14 16 18 23 23 22 32 76 94 82 88 98 100 100 100 100 100 100 100 100 100 100 100 100 100 97 98 100
4 4 3 3 2 2 2 1 1 2 2 2 3 3 4 5 10 17 18 20 24 22 27 38 100 77 59 81 89 90 97 96 100 100 100 100 100 100 100 100 100 99 98 100 100
4 3 3 2 2 2 2 1 2 2 2 2 3 4 4 6 12 17 17 20 26 23 27 36 85 100 57 73 81 67 71 83 84 100 100 100 100 100 100 100 100 100 100 100 96
4 3 2 2 2 2 2 1 2 2 3 3 4 5 5 7 16 19 18 21 27 20 23 41 30 81 100 75 97 74 79 77 76 91 97 100 100 100 100 100 100 100 100 100 100
3 3 3 3 2 2 2 2 2 3 3 4 5 6 5 10 18 23 24 24 31 22 20 30 26 69 100 68 73 96 90 88 94 72 84 95 100 100 100 100 100 100 100 100 95
4 3 3 3 2 2 2 2 2 4 4 5 5 5 8 19 24 27 26 30 37 26 26 55 59 75 100 100 83 87 85 97 98 99 90 81 80 91 100 100 100 100 100 100 100
4 3 3 3 2 3 3 3 2 3 5 6 6 10 18 29 35 29 33 31 32 27 26 30 44 72 88 100 100 83 100 97 100 100 100 100 97 85 92 91 99 100 100 100 100
5 3 4 4 3 3 4 4 3 3 5 8 14 22 34 37 35 38 35 34 31 30 26 33 59 74 86 96 96 90 100 100 100 100 100 99 91 87 80 77 79 89 97 99 95
6 4 4 4 4 4 6 6 4 4 5 8 15 43 35 42 40 35 41 39 51 52 46 52 71 90 94 97 100 100 100 100 100 100 100 94 84 84 76 78 76 72 79 86 87
6 5 5 5 5 6 8 8 8 7 7 13 17 21 35 34 35 35 34 46 48 51 53 50 56 85 95 100 100 96 96 100 100 100 99 85 87 77 76 81 92 90 83 84 81
6 5 6 6 6 6 11 11 12 18 20 25 32 39 42 44 42 63 61 67 69 66 70 56 53 62 90 100 100 100 100 91 100 100 98 92 84 81 84 92 80 78 77 74 74
6 6 6 7 8 9 16 18 18 25 33 41 41 48 53 60 72 73 73 72 72 74 68 65 61 70 78 86 85 100 100 100 100 96 94 88 90 75 86 85 77 79 85 75 72
7 6 7 9 9 12 15 24 30 24 35 42 44 50 57 58 57 66 77 72 68 65 73 73 69 67 67 76 93 100 100 100 100 99 91 89 74 77 78 76 72 79 85 83 72
7 7 6 8 9 12 16 23 37 33 36 48 61 67 69 82 83 88 89 93 85 77 71 67 71 76 77 81 89 97 99 96 97 96 77 84 69 78 81 90 94 88 75 92 91
7 7 7 9 11 12 18 24 29 42 46 50 57 63 75 67 68 67 77 82 81 82 79 69 65 64 75 82 92 94 93 91 94 87 75 82 91 88 87 99 98 90 79 74 54

GFSSW_250_rhum_063.txt.gz
RH
6 7 7 7 6 6 5 6 6 6 5 6 7 8 7 6 7 8 8 8 8 10 12 31 63 80 95 98 92 51 55 74 100 100 100 100 80 66 75 68 57 47 52 48 43
7 6 7 6 6 5 5 5 6 5 5 5 6 7 7 7 7 8 9 8 7 7 9 12 33 62 92 97 92 79 67 61 82 100 100 100 96 72 69 83 69 60 63 61 54
6 6 6 6 5 5 5 5 6 6 5 5 5 5 7 7 7 10 7 7 7 7 8 10 19 44 87 98 90 89 100 94 79 87 100 100 99 94 73 79 97 76 62 67 62
6 6 5 5 5 4 5 5 5 5 6 5 4 4 5 7 9 8 6 8 7 7 7 9 12 36 94 92 96 83 100 100 99 100 96 99 100 96 83 90 94 100 89 72 74
6 5 5 5 4 4 4 4 4 4 4 4 4 3 4 6 9 8 6 8 7 7 8 8 10 19 70 100 100 100 100 100 100 100 100 91 78 88 98 89 91 100 100 89 85
5 5 4 4 4 4 4 3 3 3 3 3 3 2 2 6 9 8 6 8 7 8 8 8 10 12 25 89 100 100 100 100 100 100 100 100 100 80 96 90 94 100 100 100 100
4 4 4 4 3 3 3 3 3 2 2 2 2 2 2 6 8 7 6 7 8 9 8 8 9 10 14 78 100 100 100 100 100 100 100 100 100 100 98 80 87 88 94 100 100
4 4 4 4 3 2 2 2 2 2 2 2 2 2 2 4 6 6 6 6 8 9 9 9 10 10 13 46 100 100 100 100 100 100 100 100 100 100 96 95 100 98 91 90 92
4 3 3 3 2 2 2 2 2 2 2 1 1 2 2 3 4 7 6 7 8 9 9 10 10 10 12 35 87 100 100 100 100 100 100 100 100 100 100 100 100 100 100 100 100
4 3 3 3 2 2 2 2 2 1 1 1 1 1 2 3 4 6 6 7 8 9 11 11 11 10 10 14 58 100 100 100 100 100 100 100 100 100 100 100 100 100 100 100 100
4 3 3 2 2 2 2 1 1 1 1 1 1 1 2 2 4 5 7 8 9 11 12 13 11 11 13 16 25 98 100 100 100 100 100 100 100 100 100 100 100 100 100 100 100
3 3 3 2 2 2 1 2 2 1 1 1 1 2 2 2 3 4 7 8 10 13 15 15 12 13 14 14 18 26 100 100 100 100 100 100 100 100 100 100 100 100 100 92 95
3 3 3 2 2 2 2 2 1 1 1 2 1 2 2 3 4 5 8 11 13 15 17 20 16 15 16 17 18 32 64 100 100 100 100 100 100 100 100 97 98 99 100 100 100
3 2 2 2 2 2 2 2 1 2 2 2 1 2 2 3 5 6 12 14 16 18 20 21 21 21 27 20 20 29 43 100 100 100 100 100 100 100 91 90 85 86 87 88 88
3 3 2 2 2 2 2 2 1 2 2 2 2 2 3 4 5 7 15 17 18 23 23 23 22 27 26 18 26 30 40 53 100 100 100 100 100 100 100 100 91 99 97 87 82
3 3 2 2 2 2 2 2 2 2 2 3 4 4 5 5 8 9 15 20 21 26 24 24 30 37 64 25 26 31 38 39 73 100 100 100 100 100 100 100 100 100 100 96 91
3 3 3 3 2 2 2 2 2 2 3 4 5 5 6 7 8 15 25 23 25 26 25 25 30 39 63 44 35 62 37 51 66 86 100 100 100 100 100 100 100 100 100 100 100
4 4 3 3 3 3 3 2 2 2 3 4 6 7 8 10 18 26 26 29 31 27 25 24 25 31 58 60 24 44 58 55 78 86 98 98 100 100 100 100 100 100 100 100 100
4 4 3 3 3 3 3 3 3 3 4 5 6 9 12 15 28 27 29 29 29 26 28 25 29 30 45 43 28 22 41 60 70 77 98 100 83 78 88 89 90 100 100 100 100
4 4 4 4 4 3 5 4 5 4 4 6 10 16 25 27 28 29 30 27 25 24 25 27 29 43 51 61 56 47 47 77 96 100 100 96 94 84 77 75 75 75 86 100 100
4 5 4 4 5 5 7 8 8 8 6 5 6 23 27 34 32 33 33 31 26 25 28 28 38 34 58 66 68 73 51 84 93 100 100 98 98 96 93 94 89 74 69 75 85
5 5 5 4 5 6 9 12 13 14 13 16 22 16 21 26 29 29 29 33 36 35 29 34 41 55 61 71 58 65 72 87 86 100 100 100 100 100 96 91 87 81 76 72 67
5 6 5 5 6 7 9 14 20 22 24 26 27 31 35 35 31 30 32 33 29 32 32 39 44 58 73 82 90 89 88 75 72 90 95 92 92 98 99 97 98 85 79 76 70
6 6 6 5 6 8 9 15 24 25 26 31 33 34 35 33 37 34 34 35 36 41 47 54 46 53 71 89 91 94 100 96 96 98 86 84 95 85 100 100 80 77 76 79 73
6 6 6 6 6 8 10 17 18 30 27 29 33 36 36 44 47 47 49 55 56 58 60 63 52 52 56 77 95 100 100 100 97 94 91 96 96 100 95 87 80 84 78 70 77
7 6 7 6 7 8 11 13 26 27 37 33 34 36 40 45 57 73 87 86 90 88 90 85 74 65 60 71 95 100 100 100 100 100 93 87 77 88 85 83 91 93 76 80 80
8 7 7 7 7 8 11 14 20 35 38 48 50 51 51 57 63 65 71 72 76 85 78 80 85 85 76 82 84 89 98 97 90 83 80 81 92 94 99 92 87 79 80 78 89

GFSSW_250_rhum_066.txt.gz
RH
6 6 6 5 4 4 5 4 5 5 5 6 7 9 9 7 7 7 8 10 8 8 8 10 27 68 59 42 37 46 78 96 100 100 100 64 40 37 43 40 34 35 34 33 31
5 5 5 4 4 4 4 4 4 5 5 6 7 8 8 8 8 8 9 8 8 8 8 9 12 49 59 52 44 31 51 75 98 100 100 100 69 43 38 43 45 35 34 36 36
5 5 4 4 4 4 4 4 4 5 4 5 5 6 7 8 9 10 7 6 8 9 8 8 10 23 50 63 56 46 47 65 84 100 100 100 98 66 43 40 49 54 64 76 71
4 4 4 3 4 4 4 4 4 4 4 4 4 4 4 7 9 10 7 6 7 9 8 8 8 10 34 53 73 66 69 79 90 95 91 100 100 94 77 60 45 51 60 68 77
4 3 3 3 3 3 3 3 3 3 3 3 3 3 3 4 8 10 8 6 7 8 10 8 9 10 15 64 79 90 76 90 100 100 92 89 96 89 82 74 84 80 69 69 73
4 3 3 3 3 3 3 2 2 2 3 3 3 3 3 4 7 7 7 6 7 7 9 9 9 8 12 20 63 100 100 100 100 100 100 100 88 90 90 71 84 96 100 100 98
3 3 3 3 3 2 2 2 2 2 2 2 2 2 2 3 4 5 7 6 7 8 8 9 9 8 9 12 21 88 100 90 87 100 100 100 100 96 86 83 81 93 100 100 100
3 3 3 3 3 2 2 2 2 2 2 2 2 2 2 2 2 4 6 6 6 8 8 8 9 8 8 10 14 52 100 82 99 100 100 100 100 100 97 84 89 96 98 100 100
3 3 3 3 2 2 2 2 2 2 2 2 2 2 2 2 2 3 5 8 6 9 8 8 10 9 8 9 11 20 92 100 88 100 100 100 100 100 100 100 98 95 93 95 100
3 3 3 2 2 2 2 1 1 1 1 1 1 1 1 2 2 3 4 6 6 8 8 8 10 9 9 8 9 14 98 100 100 100 100 100 100 100 100 100 100 97 96 100 100
3 3 3 2 2 2 2 1 1 1 1 1 1 1 1 1 2 2 4 5 6 7 8 9 10 10 10 9 10 10 47 100 100 100 100 100 100 100 100 100 100 100 100 100 100
3 3 3 2 2 2 2 2 2 1 1 1 1 2 1 1 2 2 4 5 6 9 9 9 12 11 11 10 10 10 17 82 100 100 98 100 100 100 100 100 100 100 100 100 100
3 3 2 2 2 2 2 2 2 1 1 1 1 1 2 2 2 3 4 6 8 10 11 13 15 12 11 11 11 11 13 32 98 100 100 100 100 100 100 100 100 100 100 100 100
3 3 3 3 2 2 2 2 2 2 2 2 1 2 2 2 3 4 5 6 11 14 13 15 17 14 12 11 12 12 12 17 52 100 100 100 100 99 100 100 100 100 100 100 100
4 3 3 3 3 2 2 2 2 2 2 2 2 2 2 3 4 4 6 9 17 18 18 19 19 16 14 13 15 15 14 16 21 56 100 100 100 100 100 98 100 100 100 100 100
4 3 3 3 3 2 2 2 2 2 2 2 2 3 3 4 5 6 8 11 20 17 20 23 22 19 16 16 15 15 16 16 18 28 97 100 100 100 100 97 95 99 100 100 100
5 4 4 4 3 2 2 2 2 2 2 3 4 4 5 6 7 8 10 17 21 20 19 23 24 18 15 15 15 15 16 16 18 22 83 100 100 100 100 100 98 91 90 92 90
6 5 4 4 4 3 3 3 3 2 2 3 4 6 6 7 9 12 19 29 28 24 25 26 23 24 18 17 16 17 16 15 16 19 38 95 100 100 100 100 100 96 88 79 74
6 6 5 4 4 4 3 5 6 5 4 4 4 7 10 12 16 17 26 34 30 25 25 23 24 21 18 16 15 15 17 17 20 23 24 34 67 100 100 100 100 100 92 92 94
6 6 5 5 5 5 4 6 9 8 7 6 6 7 15 15 19 31 32 30 27 25 23 24 23 22 19 21 17 18 17 19 22 28 30 40 49 93 100 100 100 100 100 100 100
7 7 6 5 6 5 6 8 12 14 13 12 11 9 19 29 30 33 33 30 27 25 27 27 29 32 30 28 25 19 29 32 36 42 51 46 48 64 99 100 100 100 100 100 100
7 7 7 6 6 6 6 10 15 18 19 19 20 26 20 22 27 28 28 28 28 28 29 29 28 30 34 39 35 29 24 45 70 85 76 71 69 70 74 82 100 100 100 100 100
8 7 8 6 6 7 7 10 17 22 24 25 24 25 30 30 31 29 27 28 31 30 31 31 33 40 43 35 35 39 45 48 54 69 96 99 100 100 97 91 98 93 80 75 79
7 7 8 7 7 7 8 10 18 27 32 29 28 28 28 28 29 31 30 29 29 30 34 36 35 39 47 56 48 59 66 70 67 75 92 97 100 99 100 100 100 92 90 98 86
6 7 8 8 7 7 8 9 15 29 37 40 32 31 29 30 30 30 32 35 39 37 34 37 38 37 38 50 83 80 81 81 82 71 79 87 100 100 100 100 100 100 100 98 93
6 7 7 8 7 8 8 9 12 24 37 48 55 43 39 39 36 36 38 39 42 48 53 57 53 40 41 43 45 66 78 85 85 85 85 91 86 91 97 96 100 92 96 99 90
6 6 6 8 8 8 8 9 11 17 34 48 64 68 59 51 53 58 57 57 62 62 66 74 80 69 60 57 60 73 89 95 96 99 100 99 96 95 91 91 94 91 94 90 88

GFSSW_250_rhum_069.txt.gz
RH
4 4 4 4 4 3 4 4 4 4 5 5 6 8 8 9 8 7 8 8 8 8 8 8 9 9 11 26 42 29 67 76 70 73 82 79 70 57 47 42 29 38 33 36 53
4 4 3 3 3 3 4 4 4 4 5 5 5 6 8 9 10 8 8 8 7 7 8 8 9 9 10 14 40 43 34 87 100 100 87 84 75 64 53 57 47 42 32 38 42
4 4 3 3 3 3 3 3 3 4 4 4 4 5 6 8 10 11 8 7 6 7 8 8 8 8 9 11 25 56 36 77 100 93 82 87 90 63 64 63 60 54 40 37 43
4 4 3 3 3 3 3 3 3 3 3 3 3 4 4 6 10 12 10 7 6 8 7 9 8 8 9 10 21 59 94 64 79 96 100 100 100 64 58 60 68 52 46 54 51
3 3 3 3 3 3 3 3 3 2 2 2 3 3 3 4 9 10 8 6 6 9 7 7 9 9 8 11 12 46 95 73 46 95 100 100 100 100 58 45 54 62 57 50 50
3 3 3 3 3 3 3 3 2 2 2 2 2 3 3 5 6 7 9 6 6 7 8 7 10 9 8 10 12 34 74 99 53 72 94 100 100 100 78 53 49 57 52 48 46
3 3 2 3 3 2 2 2 2 2 2 2 2 2 2 3 4 5 8 7 6 8 8 9 8 10 9 9 10 14 31 96 100 55 74 100 100 100 98 74 75 56 61 58 45
3 2 2 2 2 2 2 2 2 2 2 2 2 2 2 2 3 3 6 7 7 8 9 8 8 9 9 8 9 11 23 46 100 74 80 98 100 100 100 87 80 85 86 97 100
3 2 2 2 2 2 2 2 2 2 2 2 2 2 2 2 3 3 4 7 7 7 9 9 9 8 9 9 9 10 12 61 100 96 91 96 100 100 100 100 84 86 90 100 100
2 2 2 2 2 2 2 2 2 2 1 1 1 1 1 2 2 2 3 6 6 8 9 10 8 8 8 9 8 9 11 81 100 100 88 98 100 99 100 100 96 91 97 100 100
3 2 3 2 2 2 2 2 2 2 1 1 1 1 2 2 2 2 3 5 5 6 7 10 9 9 10 13 11 9 12 17 86 100 100 94 100 100 100 100 100 94 98 100 100
3 2 2 3 2 2 2 2 2 2 1 1 1 2 2 2 2 2 3 4 4 8 10 7 12 12 11 11 11 9 10 13 43 98 100 100 100 100 100 100 100 100 94 100 100
3 3 2 3 2 2 2 2 2 1 1 2 2 1 2 2 2 2 2 4 5 8 12 12 17 15 12 12 12 11 9 11 16 55 97 100 100 100 100 100 100 100 98 100 100
4 3 2 3 3 3 3 2 2 2 1 2 2 1 1 2 2 2 3 3 5 6 14 14 17 16 14 12 10 12 10 10 14 19 56 100 100 98 98 100 100 100 100 100 100
5 4 3 3 3 2 3 2 2 2 2 2 2 2 2 2 2 3 4 6 8 9 15 18 19 18 16 12 10 12 11 10 12 15 28 100 100 100 100 100 100 100 100 100 100
5 5 4 4 3 3 3 3 2 2 2 2 2 2 2 3 3 4 4 6 8 13 19 23 26 24 17 13 11 12 12 11 12 12 16 26 100 100 100 100 100 100 100 100 100
6 5 4 4 4 3 4 3 4 3 2 3 3 3 3 3 4 5 7 12 14 16 24 28 25 22 16 14 11 11 13 13 12 12 13 16 84 100 100 100 100 100 100 100 100
6 6 5 4 5 4 4 4 5 4 3 3 4 5 6 5 5 6 8 11 13 20 32 32 26 22 17 15 14 12 13 13 12 13 13 15 35 100 100 100 100 100 92 98 100
7 6 5 5 5 5 5 5 6 7 6 4 4 6 7 8 9 9 10 12 15 19 26 28 28 20 16 15 14 12 12 13 14 14 15 14 15 69 100 100 100 100 100 98 91
7 7 6 6 6 6 6 6 9 10 10 10 7 6 9 12 14 15 16 16 19 24 28 23 19 16 16 15 15 13 13 14 14 14 14 14 15 20 58 100 100 100 100 100 100
6 7 6 6 6 6 6 6 8 14 16 13 17 14 9 12 20 28 27 31 31 32 29 25 21 21 18 19 18 17 15 16 16 16 16 17 15 18 23 71 100 100 100 100 100
6 8 7 6 6 7 6 7 9 14 19 21 20 23 23 18 22 29 30 30 32 30 27 28 28 25 24 22 21 21 21 21 21 20 19 19 22 22 24 45 70 100 100 100 100
6 8 8 6 6 7 7 8 9 13 21 24 27 24 28 31 30 30 30 30 30 28 30 30 30 30 30 28 24 24 26 27 30 27 26 25 30 34 37 43 74 98 100 100 100
8 7 9 7 6 7 7 8 9 16 24 31 29 28 27 25 29 32 32 34 33 33 32 32 32 35 35 35 30 32 35 49 50 53 55 43 47 53 63 79 79 73 88 100 100
9 7 8 8 7 6 8 7 9 11 23 37 42 35 32 30 26 28 32 33 35 35 34 35 35 36 39 40 40 38 40 38 60 71 71 84 91 91 90 88 89 82 78 99 100
15 6 8 8 7 6 7 8 8 10 21 34 49 51 43 38 31 28 30 34 36 39 39 45 41 38 40 38 35 39 40 46 50 56 71 80 94 100 98 100 100 100 92 90 100
18 7 8 8 7 7 7 8 8 10 14 28 45 54 64 62 50 44 39 40 39 37 35 38 38 40 40 43 50 47 50 68 69 62 74 87 99 98 90 89 91 100 100 99 96

GFSSW_250_rhum_072.txt.gz
RH
4 4 3 3 3 3 3 3 4 4 4 4 4 4 5 6 6 7 7 8 8 8 8 8 8 10 11 12 24 58 41 36 66 76 86 67 56 32 69 57 61 64 50 44 71
4 3 3 2 3 3 3 3 3 3 3 4 4 4 5 6 6 8 9 8 8 8 8 9 8 8 10 12 14 19 31 42 83 93 99 66 66 41 55 60 64 83 48 57 79
3 3 2 2 2 2 2 2 3 3 3 3 4 4 4 4 5 8 8 8 6 8 8 9 8 8 10 12 12 15 22 68 72 94 86 84 60 48 67 58 74 79 46 68 70
4 3 3 2 3 3 3 3 3 3 2 2 3 3 3 3 5 7 8 7 5 8 9 9 9 8 10 10 13 12 39 51 66 80 89 91 86 56 63 57 77 70 42 56 63
3 3 3 2 3 2 2 3 2 3 2 2 2 3 3 4 6 6 6 7 6 7 10 9 9 9 9 11 12 13 38 37 66 66 93 96 99 84 71 66 61 69 48 64 64
3 3 3 2 2 2 2 2 2 2 2 2 2 2 2 4 4 5 6 8 7 7 10 10 9 9 9 10 11 12 14 27 43 54 95 100 100 100 78 64 66 75 75 76 52
3 3 3 2 2 2 2 2 2 2 2 2 2 2 2 2 4 4 6 7 7 6 10 10 10 9 9 10 11 12 11 14 25 70 71 99 100 100 96 64 63 80 82 76 74
3 3 3 2 2 2 2 2 2 2 2 2 2 2 2 2 3 4 6 6 7 7 10 11 11 9 9 9 11 12 11 10 15 49 80 82 100 100 100 85 69 80 81 76 74
3 2 3 2 2 2 2 2 1 1 2 1 2 2 2 2 2 3 4 6 7 8 9 11 11 10 8 8 9 10 9 10 12 24 84 84 99 100 100 99 79 73 83 88 83
3 2 3 2 2 2 2 2 1 1 2 1 1 1 1 2 2 2 4 5 8 8 7 11 11 11 9 8 8 11 11 11 13 14 50 100 88 100 100 100 100 90 81 89 100
3 3 2 2 2 2 2 2 2 2 1 1 1 1 2 2 2 2 3 5 7 7 7 10 11 10 13 13 11 10 10 10 10 13 17 98 100 79 100 100 100 100 100 99 100
3 3 2 2 2 2 2 2 2 2 1 1 1 1 1 2 2 2 3 5 4 7 7 8 9 14 12 10 9 9 9 9 10 11 13 62 100 96 87 100 100 100 100 100 100
3 3 3 2 2 3 3 2 2 2 1 1 1 1 1 1 2 2 2 4 5 8 6 9 15 17 14 12 10 9 10 10 10 10 15 20 98 100 98 97 100 100 100 100 100
4 3 3 3 2 2 3 2 2 2 1 2 2 1 1 2 2 2 2 3 6 7 10 13 15 16 16 13 11 10 11 11 10 10 16 16 83 100 100 100 99 100 100 100 100
4 5 4 3 2 2 2 2 2 2 2 2 2 2 2 2 2 2 3 4 5 6 8 10 14 14 15 13 12 12 11 11 10 11 12 17 17 100 100 100 100 100 100 100 100
6 5 4 4 3 3 3 3 3 4 2 2 2 2 2 2 2 2 3 3 4 6 7 12 15 14 15 16 16 13 11 12 12 11 10 12 15 40 100 100 100 100 100 100 100
11 6 4 4 4 4 4 4 4 5 4 3 3 2 3 2 3 5 5 5 6 6 8 10 13 21 24 20 15 13 12 12 12 10 11 11 12 15 96 100 100 100 100 100 100
12 8 6 5 5 4 5 4 4 5 6 4 4 4 4 4 4 4 7 8 6 6 9 11 18 20 22 19 18 14 11 10 11 11 13 11 11 14 30 100 100 100 100 100 100
14 14 9 5 6 5 5 5 5 6 8 6 5 5 5 5 5 5 5 6 8 10 14 19 20 25 24 20 17 13 12 12 14 13 13 13 11 13 21 71 100 100 100 100 100
24 20 17 7 6 6 5 6 6 7 9 11 8 8 7 7 7 8 8 7 9 12 15 22 26 21 22 22 18 16 14 12 14 14 13 13 13 12 15 27 45 98 100 100 100
22 24 15 9 6 6 6 6 6 6 9 12 13 13 11 10 11 13 12 15 16 15 18 19 18 23 22 22 21 19 14 13 15 16 13 14 13 13 14 18 25 28 53 90 100
20 22 21 11 7 6 6 6 7 6 9 14 17 15 16 18 19 20 20 19 21 24 23 21 18 21 22 23 23 21 19 19 19 18 17 15 14 16 14 15 18 34 39 57 91
35 32 24 11 8 6 6 6 7 8 8 13 20 22 20 20 24 28 30 31 33 30 30 29 31 31 29 28 27 26 24 26 25 20 18 17 17 16 16 15 17 24 56 67 62
31 50 21 15 10 7 7 6 7 8 9 14 19 23 24 25 23 26 32 34 36 35 35 38 35 37 36 32 32 29 29 29 28 24 21 20 19 18 18 19 19 21 49 99 100
51 49 29 21 10 8 7 6 6 8 9 11 21 25 27 28 26 27 27 32 35 37 40 39 40 38 37 38 34 33 35 34 33 29 28 28 23 23 22 24 27 23 28 52 100
80 60 23 20 9 8 7 7 6 8 8 10 16 27 31 34 32 30 26 25 27 30 34 37 37 38 36 35 37 39 40 50 61 55 42 59 47 43 36 34 32 29 31 44 60
45 58 23 20 11 8 7 8 7 7 9 9 12 24 33 40 42 43 36 33 32 33 34 34 33 35 35 31 32 42 40 51 63 68 64 70 81 72 73 68 63 62 58 52 61

GFSSW_250_rhum_075.txt.gz
RH
6 5 3 3 2 3 3 3 3 3 3 4 4 4 4 4 4 5 5 5 5 6 6 7 6 7 7 9 11 11 24 53 56 70 99 100 89 26 34 46 58 51 53 66 69
5 5 4 3 2 2 2 3 3 3 3 3 3 3 4 4 4 5 6 5 5 5 6 6 6 7 7 9 11 10 15 54 84 92 81 100 100 31 26 34 56 25 34 67 77
6 6 4 3 2 2 3 3 2 2 2 2 3 3 3 3 4 5 5 5 5 5 6 6 7 6 7 8 11 11 13 78 81 86 64 99 100 56 27 34 43 33 41 68 80
5 6 4 3 2 2 3 3 3 2 2 2 2 3 3 3 4 4 5 6 6 5 6 7 7 7 8 9 11 11 14 31 87 60 48 80 100 87 39 39 39 33 33 55 88
5 5 3 2 2 2 2 2 2 2 2 2 2 2 3 3 4 4 4 5 5 5 6 8 8 9 9 10 10 12 13 17 78 34 46 64 92 86 65 34 51 40 58 48 72
5 4 3 2 2 2 2 2 2 2 2 2 2 2 2 3 3 4 4 5 6 5 7 7 9 9 9 10 10 13 14 15 22 25 37 44 78 96 85 45 47 52 60 56 67
5 5 4 2 2 2 2 2 2 2 1 1 2 2 2 2 3 4 4 5 5 6 7 8 8 8 9 10 10 12 14 16 12 19 21 40 70 83 100 63 68 42 50 61 64
6 5 3 2 2 2 2 2 1 1 1 1 1 2 2 2 3 4 5 4 5 6 6 8 9 10 10 10 10 11 13 15 12 11 13 35 64 97 100 83 78 56 53 67 69
7 6 3 2 2 2 2 2 1 1 1 1 1 1 1 1 2 3 4 4 6 6 6 8 8 11 10 10 10 11 11 15 15 12 10 19 75 100 100 98 87 73 54 58 70
9 6 3 2 2 2 2 2 2 2 2 1 1 1 2 2 2 2 3 4 6 7 5 7 9 11 11 10 12 14 15 15 17 15 13 13 63 100 100 97 100 100 89 71 65
10 6 4 2 2 2 2 2 2 2 2 1 1 2 2 2 2 2 3 4 5 7 6 7 10 9 14 17 12 12 12 14 15 16 12 12 26 66 100 100 100 100 99 98 89
12 7 4 3 2 2 2 2 2 2 2 1 1 1 1 2 2 2 3 4 5 7 8 6 11 13 14 14 12 11 11 14 14 13 11 15 16 25 72 100 100 100 100 98 93
14 10 5 3 3 2 2 2 2 2 2 2 1 1 1 1 2 3 3 3 5 6 9 8 14 16 14 15 14 13 13 13 13 14 14 14 18 14 40 97 100 100 100 100 98
20 13 8 3 3 3 2 2 2 2 3 2 2 2 1 1 2 2 3 3 4 5 9 11 10 15 16 15 15 14 14 11 12 13 14 14 16 18 18 72 100 100 100 100 100
35 21 11 6 5 3 2 3 2 3 3 3 2 2 2 2 2 3 3 4 4 5 8 13 11 13 16 20 16 16 12 10 11 12 13 13 13 15 17 22 62 100 100 100 100
37 32 17 9 6 5 3 3 3 3 3 3 2 2 2 2 3 3 3 3 4 4 11 13 12 13 19 21 17 16 13 11 11 10 10 12 12 14 16 19 24 47 83 97 100
46 50 19 11 6 6 5 4 3 4 4 4 4 3 3 2 2 3 3 3 4 6 14 14 13 16 18 19 19 16 15 12 10 8 10 12 12 12 12 15 20 20 40 71 97
55 53 33 15 15 8 7 5 4 3 4 6 6 4 4 3 3 3 4 4 5 7 10 12 13 16 19 20 21 18 15 12 10 11 11 11 11 12 12 13 17 23 20 47 74
65 52 32 19 10 13 7 6 6 4 5 6 7 7 5 5 5 5 3 5 6 6 7 9 11 13 16 19 20 16 14 13 12 11 10 10 12 13 12 12 14 20 28 26 60
62 55 46 26 18 15 9 8 7 6 5 7 9 9 6 7 6 7 7 6 8 8 10 12 13 15 16 18 18 17 15 14 12 13 14 12 12 13 13 13 14 19 32 31 38
68 58 41 36 25 17 8 8 8 7 6 6 10 10 10 8 8 8 10 9 8 8 8 11 12 16 20 17 16 18 20 20 16 13 15 14 14 14 14 14 14 14 18 32 29
75 64 34 44 33 26 13 8 9 8 7 6 9 12 12 13 12 12 13 14 14 13 11 12 12 12 14 17 24 23 23 19 17 20 23 17 16 14 14 15 14 14 16 24 29
71 65 57 49 35 21 22 7 9 9 8 8 8 13 15 15 17 15 18 20 22 22 20 20 22 24 27 28 27 26 25 28 26 22 22 20 19 16 13 14 15 14 14 15 21
61 65 59 55 56 40 20 9 7 9 9 8 10 11 17 17 19 21 20 22 29 31 33 34 39 38 40 40 38 38 35 33 30 26 24 22 20 17 15 14 15 16 16 15 17
66 60 57 52 51 43 21 9 7 8 10 8 9 13 18 23 19 22 25 25 27 32 33 35 39 44 43 48 48 43 40 36 30 26 26 24 23 19 16 16 16 16 16 16 17
66 63 49 51 36 29 21 7 7 7 9 9 8 10 17 28 25 23 24 28 27 30 32 33 34 35 36 38 40 49 46 41 37 35 32 27 26 23 20 18 17 17 17 18 19
72 71 46 40 35 29 22 8 6 7 8 9 9 8 11 21 28 28 27 26 30 31 32 32 32 34 34 36 34 38 41 44 41 46 52 52 34 34 26 22 20 18 19 19 20

GFSSW_250_rhum_078.txt.gz
RH
5 6 7 7 4 3 2 2 3 2 3 3 3 3 3 4 4 4 5 5 5 5 5 6 6 8 9 9 8 7 8 11 12 14 81 100 100 64 92 84 63 50 61 56 49
6 8 8 6 4 3 3 2 2 2 2 2 2 3 3 4 4 5 4 4 5 5 4 5 5 6 8 9 8 8 7 11 14 16 70 85 93 61 76 100 84 40 62 60 52
6 7 8 5 4 3 2 2 2 2 2 2 2 3 3 3 3 4 4 4 4 5 6 5 5 6 7 8 8 8 9 13 15 14 27 73 97 73 62 88 100 80 51 75 65
6 5 6 5 3 2 2 2 2 2 2 2 2 2 3 3 3 4 3 4 4 5 6 5 5 6 8 8 8 9 10 11 14 12 16 66 100 77 59 83 100 100 38 73 69
7 5 5 6 3 3 2 2 2 2 2 2 2 2 2 2 2 3 3 4 4 4 5 6 6 6 8 10 9 10 10 11 12 13 15 56 100 100 78 48 85 100 57 43 67
8 6 5 4 3 3 2 2 2 1 2 2 2 2 2 2 2 3 3 4 4 5 5 5 6 6 7 10 9 10 10 11 11 13 16 41 100 100 98 44 51 97 98 46 56
9 6 5 4 2 3 2 2 2 2 2 1 1 2 2 2 3 3 4 4 4 5 5 6 6 6 7 9 9 11 11 10 11 14 16 18 77 100 100 60 36 84 82 68 58
11 8 6 4 2 2 2 2 2 2 2 2 1 1 1 1 2 3 4 5 5 5 5 6 7 7 8 10 9 10 10 9 12 15 16 13 57 100 100 79 37 47 72 85 35
13 10 5 4 3 2 2 2 2 2 2 2 1 1 1 1 2 2 3 4 5 5 5 7 8 8 8 9 9 10 11 10 13 16 18 14 30 90 100 93 40 31 73 95 93
16 9 5 4 3 2 2 2 2 2 2 1 1 1 1 1 2 2 2 3 4 5 6 6 8 9 8 9 11 13 13 12 13 16 19 17 20 45 83 99 62 35 49 89 100
16 11 7 4 4 2 2 2 2 2 1 2 1 1 1 1 2 2 2 3 4 6 6 6 8 7 8 12 13 14 13 13 14 16 18 21 19 22 57 71 78 65 47 77 100
19 12 10 7 5 3 2 3 2 2 2 2 2 1 1 1 1 2 3 3 4 5 6 6 9 11 11 13 14 14 13 13 13 15 16 20 18 18 19 44 59 68 55 54 89
24 16 10 10 9 5 4 5 2 2 2 3 2 2 1 1 1 2 3 3 4 5 6 8 11 13 13 14 14 14 14 14 13 14 16 19 21 15 14 22 39 67 71 52 68
28 22 14 12 14 8 4 5 3 3 2 3 3 2 2 2 2 2 3 3 4 5 8 9 10 13 13 16 15 15 16 14 12 13 16 17 20 18 16 15 24 52 72 70 63
33 34 27 20 20 10 6 4 4 3 3 3 4 3 2 2 2 2 3 4 4 5 10 11 13 15 12 18 16 16 15 15 13 13 14 15 17 16 16 15 15 35 57 70 77
39 45 35 35 29 17 9 6 5 4 3 4 3 5 2 2 2 3 3 4 4 6 10 12 14 16 18 20 17 16 16 16 14 13 13 15 14 16 15 16 17 20 22 46 67
44 65 42 30 34 22 20 10 6 4 4 4 4 5 4 2 3 3 4 4 5 6 9 11 14 15 19 18 17 17 16 15 14 12 14 14 14 21 15 15 16 17 19 16 19
47 57 46 44 31 27 26 20 7 4 4 5 6 6 7 4 3 4 4 5 5 7 9 11 12 12 13 16 24 17 16 17 18 16 15 12 14 19 16 16 16 17 20 18 17
37 63 68 45 46 34 27 27 12 4 5 5 6 9 9 6 4 4 4 6 5 6 12 17 15 16 15 20 25 26 18 17 16 16 14 13 14 17 15 16 18 17 21 22 24
48 62 74 65 41 52 30 29 20 6 5 5 6 7 11 10 5 4 4 5 6 7 8 15 20 17 19 20 17 22 24 17 14 14 14 15 16 18 15 16 17 18 20 27 23
45 54 62 73 85 52 38 28 22 15 5 6 6 8 11 12 9 6 5 7 8 10 10 10 12 11 12 15 20 22 18 18 16 14 16 16 17 17 17 15 16 16 16 16 17
42 62 60 71 79 65 40 36 25 19 7 6 6 6 9 15 14 10 6 6 8 10 12 14 17 16 16 14 18 21 18 17 19 18 18 21 19 18 18 18 14 15 15 15 15
48 64 51 87 92 86 46 41 36 19 15 6 6 6 9 14 17 14 12 9 9 11 13 13 15 18 20 19 22 28 27 30 25 25 32 26 22 19 17 17 16 14 15 15 14
43 49 61 79 84 82 53 49 37 27 17 8 7 7 7 10 18 17 15 15 12 12 16 21 21 19 20 21 27 23 26 32 30 30 38 36 26 21 19 18 17 15 14 16 16
40 61 52 64 71 81 71 53 39 27 20 11 7 8 7 8 14 23 20 19 21 18 18 20 30 38 38 40 43 42 48 47 49 43 40 38 36 26 23 19 18 16 15 14 15
45 66 59 66 82 74 84 46 34 22 17 12 7 8 8 8 12 21 22 21 23 25 27 28 34 39 49 58 62 61 59 53 41 38 36 31 28 22 21 19 17 17 16 15 16
41 44 56 68 77 92 77 46 31 21 13 10 7 8 9 9 11 16 25 26 23 26 27 26 27 33 37 40 47 51 48 46 45 40 36 42 32 27 22 19 17 16 16 16 16

GFSSW_250_rhum_081.txt.gz
RH
10 6 6 6 6 4 3 3 2 2 2 2 2 2 2 3 3 3 5 4 5 4 4 6 7 9 9 9 8 9 7 10 14 14 16 16 51 49 49 55 91 100 82 60 67
12 9 7 7 7 4 4 4 3 3 2 2 2 2 2 2 3 4 4 4 4 5 4 5 6 8 10 10 9 8 9 9 16 17 20 14 19 41 41 45 68 100 100 74 86
12 11 8 7 5 3 4 3 3 2 2 2 2 2 2 2 3 3 3 4 4 5 5 5 5 6 9 10 11 10 11 10 12 17 17 14 14 16 23 49 58 95 100 88 92
16 12 5 5 5 3 4 3 3 2 2 2 2 2 2 2 3 3 3 4 4 4 6 5 5 6 7 10 13 15 12 11 10 13 16 15 15 16 12 40 58 73 100 100 94
18 11 8 6 5 3 4 4 3 2 2 2 2 2 2 2 2 3 3 4 4 4 5 6 6 6 6 9 12 15 16 12 10 10 14 16 14 18 14 18 49 62 100 100 99
18 12 7 3 3 3 4 3 3 3 2 2 1 1 1 2 2 2 3 3 4 4 5 5 6 6 6 7 8 13 14 14 11 10 11 12 14 18 18 12 35 60 98 100 100
25 15 9 6 4 2 2 2 3 3 2 2 2 2 1 1 2 2 3 3 4 4 4 5 5 6 6 7 7 10 12 12 12 11 11 10 12 18 19 15 23 61 89 100 100
24 18 11 8 4 3 2 3 2 2 2 2 2 1 1 1 1 2 2 3 4 4 4 5 5 6 7 8 8 9 10 11 11 12 12 10 11 18 20 15 13 64 75 100 100
32 20 13 8 4 3 2 4 2 2 2 2 2 1 1 1 1 2 2 2 4 5 5 5 5 6 7 7 8 9 10 12 12 13 13 11 12 17 20 22 18 22 84 88 97
32 25 14 7 5 4 3 3 2 2 2 2 2 2 1 1 1 2 2 2 3 5 7 6 6 7 7 7 8 10 13 14 14 15 15 13 15 15 20 22 34 14 64 81 93
35 28 18 9 6 4 3 3 2 3 2 2 3 2 2 1 1 2 2 2 3 4 6 6 6 7 7 9 10 13 16 16 16 15 15 14 16 14 20 20 40 18 19 78 75
33 31 20 12 8 6 4 4 3 3 3 2 3 2 2 1 1 2 2 2 3 4 4 6 7 8 9 11 12 13 14 14 15 14 14 14 15 15 20 20 24 29 15 24 77
37 28 22 16 17 11 8 4 4 4 3 3 3 3 2 2 2 2 2 2 3 3 5 8 9 10 9 10 12 13 17 15 14 14 14 14 15 15 19 20 21 24 18 14 30
38 26 24 25 30 21 11 6 6 5 3 3 3 3 3 2 2 2 2 2 3 3 7 8 10 9 9 11 14 15 17 17 14 13 16 14 17 17 19 22 21 33 21 21 20
37 29 26 26 51 53 17 10 9 10 7 3 3 4 4 3 2 2 2 3 4 5 8 8 10 12 10 11 13 17 16 18 19 15 16 17 16 18 19 20 22 23 19 17 17
40 36 30 27 43 51 31 15 12 14 10 7 4 3 5 3 2 2 3 3 4 6 7 9 12 13 14 13 16 17 17 15 19 17 15 16 16 18 20 21 21 21 20 20 17
44 38 34 33 38 59 34 22 15 21 15 11 5 4 4 6 3 3 3 4 5 5 6 8 14 18 17 15 17 15 14 13 16 16 19 15 16 18 18 21 20 20 16 17 17
48 41 34 36 41 61 49 38 26 19 22 16 9 6 4 6 5 3 3 3 4 4 7 12 17 20 16 15 16 16 12 14 16 19 19 16 17 19 16 18 20 20 19 16 16
48 46 37 42 53 56 71 41 35 25 25 21 15 7 5 6 8 4 3 3 4 5 6 8 14 18 17 17 19 17 14 16 20 19 22 18 19 18 16 17 19 17 18 19 17
46 52 38 43 55 57 76 60 46 29 28 25 18 10 6 6 10 8 5 4 5 5 7 10 12 12 16 19 20 19 23 22 19 18 19 20 22 23 17 16 17 19 19 17 17
49 56 41 38 46 73 84 71 53 31 26 27 25 17 8 6 9 12 8 5 5 7 7 9 12 15 19 24 32 39 42 40 35 26 22 22 23 22 21 18 17 17 18 18 18
48 54 38 40 52 71 80 64 47 43 26 25 30 18 9 7 8 14 12 7 5 7 9 9 12 14 22 23 28 30 27 26 30 45 36 24 24 23 22 22 20 18 16 16 15
54 56 41 35 47 64 77 60 51 37 27 24 24 20 12 7 7 14 16 12 7 7 9 11 12 12 14 17 18 26 38 44 36 38 35 35 75 27 21 20 21 21 18 15 14
64 62 50 38 54 79 71 68 57 33 23 21 21 20 10 8 8 10 17 16 13 9 9 11 13 14 14 16 22 27 25 30 32 36 52 71 74 35 21 21 21 22 22 20 15
70 64 62 39 55 71 68 76 52 33 21 18 17 19 9 10 8 8 14 19 17 15 12 12 14 14 14 16 18 22 25 33 47 60 51 74 68 38 32 30 23 20 20 21 19
80 65 65 45 50 63 73 58 44 27 15 14 14 17 7 7 8 8 12 20 20 18 17 16 18 22 23 23 26 32 25 31 51 57 66 61 61 34 24 24 23 20 20 19 18
82 69 63 45 48 59 68 52 39 23 14 12 11 11 6 6 8 8 11 17 25 23 22 23 19 24 31 35 31 34 31 36 44 54 63 63 48 37 33 27 24 21 19 18 17